Not logged in
PANGAEA.
Data Publisher for Earth & Environmental Science

Long, Charles (2017): Radiosonde measurements from station Southern Great Plains (2014-05) [dataset]. Argonne National Laboratory, PANGAEA, https://doi.org/10.1594/PANGAEA.871097

Always quote citation above when using data! You can download the citation in several formats below.

Published: 2017-01-23DOI registered: 2017-02-20

RIS CitationBibTeX Citation ShareShow MapGoogle Earth

Other version:
Long, Charles (2017): BSRN Station-to-archive file for station Billings (2014-05) [dataset]. ftp://ftp.bsrn.awi.de/bil/bil0514.dat.gz
Coverage:
Latitude: 36.605000 * Longitude: -97.516000
Date/Time Start: 2014-05-01T00:00:00 * Date/Time End: 2014-05-31T23:59:00
Minimum ALTITUDE: 315 m * Maximum ALTITUDE: 28342 m
Event(s):
BIL (Billings) * Latitude: 36.605000 * Longitude: -97.516000 * Date/Time: 1993-06-01T00:00:00 * Elevation: 317.0 m * Location: Oklahoma, United States of America * Method/Device: Monitoring station (MONS) * Comment: BSRN station no: 28; Surface type: grass; Topography type: flat, rural; Station scientist: Laura Riihimaki (laura.riihimaki@noaa.gov)
Comment:
Launches at irregular time intervals. The radiosonde measurements from station Southern Great Plains are used for Billings and E13
Parameter(s):
#NameShort NameUnitPrincipal InvestigatorMethod/DeviceComment
DATE/TIMEDate/TimeLong, CharlesGeocode
ALTITUDEAltitudemLong, CharlesGeocode
Pressure, at given altitudePPPPhPaLong, CharlesRadiosonde, Vaisala, RS80-15LH
Temperature, airTTT°CLong, CharlesRadiosonde, Vaisala, RS80-15LH
Dew/frost pointTdTdTd°CLong, CharlesRadiosonde, Vaisala, RS80-15LH
Wind directiondddegLong, CharlesRadiosonde, Vaisala, RS80-15LH
Wind speedffm/sLong, CharlesRadiosonde, Vaisala, RS80-15LH
Size:
1523223 data points

Data

Download dataset as tab-delimited text — use the following character encoding:


Date/Time

Altitude [m]

PPPP [hPa]

TTT [°C]

TdTdTd [°C]

dd [deg]

ff [m/s]
2014-05-01T00:008677324-38.5-67.528024
2014-05-01T00:008685324-38.5-67.928024
2014-05-01T00:008694323-38.6-68.328024
2014-05-01T00:008702323-38.6-68.627924
2014-05-01T00:008711322-38.5-69.027924
2014-05-01T00:008720322-38.6-69.427925
2014-05-01T00:008730321-38.7-69.727925
2014-05-01T00:008740321-38.7-69.827925
2014-05-01T00:008748321-38.8-69.827925
2014-05-01T00:008757320-38.8-69.827926
2014-05-01T00:008766320-38.8-69.927926
2014-05-01T00:008775319-38.9-70.127926
2014-05-01T00:008785319-38.9-70.327926
2014-05-01T00:008795318-38.9-70.427927
2014-05-01T00:008804318-38.8-70.427927
2014-05-01T00:008814318-38.7-70.527927
2014-05-01T00:008828317-38.6-70.327928
2014-05-01T00:008843316-38.4-69.527928
2014-05-01T00:008855316-38.2-68.827928
2014-05-01T00:008863315-38.3-68.727929
2014-05-01T00:008871315-38.3-68.727829
2014-05-01T00:008881315-38.3-68.627829
2014-05-01T00:008890314-38.3-68.327830
2014-05-01T00:008898314-38.3-67.927830
2014-05-01T00:008907313-38.2-67.527730
2014-05-01T00:008916313-38.1-67.127731
2014-05-01T00:008925312-38.0-66.727731
2014-05-01T00:008934312-38.1-66.427731
2014-05-01T00:008943312-38.1-66.227732
2014-05-01T00:008952311-38.2-66.027632
2014-05-01T00:018961311-38.3-65.927632
2014-05-01T00:018970310-38.3-65.727632
2014-05-01T00:018978310-38.1-64.927632
2014-05-01T00:018988310-38.0-64.227632
2014-05-01T00:018997309-38.1-63.727632
2014-05-01T00:019006309-38.1-63.527633
2014-05-01T00:019015308-38.2-63.327633
2014-05-01T00:019024308-38.3-63.127533
2014-05-01T00:019033308-38.2-62.827533
2014-05-01T00:019043307-38.3-62.627533
2014-05-01T00:019053307-38.3-62.227533
2014-05-01T00:019063306-38.4-61.727533
2014-05-01T00:019073306-38.5-61.227533
2014-05-01T00:019083305-38.6-61.027433
2014-05-01T00:019093305-38.7-60.827433
2014-05-01T00:019103305-38.8-60.727433
2014-05-01T00:019113304-38.8-60.327433
2014-05-01T00:019123304-38.8-60.227433
2014-05-01T00:019132303-39.0-60.327433
2014-05-01T00:019141303-39.0-60.427433
2014-05-01T00:019149302-39.2-60.527333
2014-05-01T00:019158302-39.2-60.527333
2014-05-01T00:019168302-39.3-60.527333
2014-05-01T00:019177301-39.4-60.527333
2014-05-01T00:019186301-39.5-60.527333
2014-05-01T00:019195300-39.5-60.527333
2014-05-01T00:019204300-39.5-60.627332
2014-05-01T00:019212300-39.6-60.727332
2014-05-01T00:019222299-39.7-60.727332
2014-05-01T00:019231299-39.8-60.627332
2014-05-01T00:029240298-39.9-60.627332
2014-05-01T00:029249298-39.9-60.527332
2014-05-01T00:029258298-40.0-60.527432
2014-05-01T00:029267297-40.1-60.527432
2014-05-01T00:029276297-40.2-60.527432
2014-05-01T00:029286296-40.2-60.627432
2014-05-01T00:029295296-40.3-60.627432
2014-05-01T00:029304296-40.4-60.527432
2014-05-01T00:029313295-40.5-60.527432
2014-05-01T00:029322295-40.6-60.627432
2014-05-01T00:029331294-40.6-60.627432
2014-05-01T00:029340294-40.7-60.527432
2014-05-01T00:029349294-40.8-60.527432
2014-05-01T00:029359293-40.9-60.627432
2014-05-01T00:029368293-41.0-60.627432
2014-05-01T00:029377293-41.0-60.527432
2014-05-01T00:029387292-41.1-60.527432
2014-05-01T00:029397292-41.2-60.627532
2014-05-01T00:029407291-41.3-60.627532
2014-05-01T00:029417291-41.4-60.527532
2014-05-01T00:029426290-41.5-60.527532
2014-05-01T00:029436290-41.5-60.527532
2014-05-01T00:029446290-41.7-60.527532
2014-05-01T00:029456289-41.8-60.527632
2014-05-01T00:029467289-41.8-60.527632
2014-05-01T00:029477288-41.9-60.627632
2014-05-01T00:029487288-42.0-60.727632
2014-05-01T00:029496287-42.1-60.627632
2014-05-01T00:029505287-42.1-60.427632
2014-05-01T00:029514287-42.2-60.327632
2014-05-01T00:039524286-42.3-60.427632
2014-05-01T00:039534286-42.4-60.527632
2014-05-01T00:039543285-42.5-60.527731
2014-05-01T00:039552285-42.6-60.527731
2014-05-01T00:039561285-42.7-60.627731
2014-05-01T00:039571284-42.8-60.527731
2014-05-01T00:039580284-42.8-60.627831
2014-05-01T00:039590283-42.9-60.527831
2014-05-01T00:039600283-42.9-60.527831
2014-05-01T00:039611283-43.0-60.627932
2014-05-01T00:039624282-43.1-60.727932
2014-05-01T00:039641281-43.3-60.827932
2014-05-01T00:039655281-43.5-60.928032
2014-05-01T00:039665280-43.7-61.128032
2014-05-01T00:039675280-43.7-61.128032
2014-05-01T00:039684280-43.8-61.128031
2014-05-01T00:039694279-43.8-61.228031
2014-05-01T00:039704279-43.9-61.228031
2014-05-01T00:039712278-44.0-61.228031
2014-05-01T00:039720278-44.0-61.228031
2014-05-01T00:039729278-44.0-61.128131
2014-05-01T00:039738277-44.1-61.128131
2014-05-01T00:039746277-44.1-61.128131
2014-05-01T00:039756277-44.2-61.028131
2014-05-01T00:039766276-44.3-61.028131
2014-05-01T00:039776276-44.4-61.028131
2014-05-01T00:039785275-44.5-60.928131
2014-05-01T00:039793275-44.5-60.828131
2014-05-01T00:039802275-44.5-60.728131
2014-05-01T00:039811274-44.7-60.728131
2014-05-01T00:049819274-44.8-60.728131
2014-05-01T00:049828274-44.8-60.728131
2014-05-01T00:049836273-44.9-60.728131
2014-05-01T00:049843273-45.0-60.728131
2014-05-01T00:049851273-45.0-60.728131
2014-05-01T00:049859272-45.1-60.828131
2014-05-01T00:049868272-45.2-60.828131
2014-05-01T00:049877272-45.3-60.928131
2014-05-01T00:049884271-45.4-60.928131
2014-05-01T00:049893271-45.4-60.928231
2014-05-01T00:049902271-45.5-60.828231
2014-05-01T00:049911270-45.5-60.828231
2014-05-01T00:049920270-45.6-60.928231
2014-05-01T00:049929269-45.7-60.928231
2014-05-01T00:049938269-45.8-61.028231
2014-05-01T00:049948269-45.9-61.228230
2014-05-01T00:049957268-46.0-61.328230
2014-05-01T00:049965268-46.0-61.328230
2014-05-01T00:049974268-46.1-61.428230
2014-05-01T00:049982267-46.2-61.428230
2014-05-01T00:049991267-46.2-61.328230
2014-05-01T00:0410000267-46.2-61.328230
2014-05-01T00:0410009266-46.4-61.328230
2014-05-01T00:0410018266-46.4-61.328230
2014-05-01T00:0410026266-46.5-61.328230
2014-05-01T00:0410035265-46.5-61.428230
2014-05-01T00:0410043265-46.7-61.528230
2014-05-01T00:0410052265-46.7-61.428230
2014-05-01T00:0410060264-46.7-61.428230
2014-05-01T00:0410070264-46.8-61.528230
2014-05-01T00:0510078263-46.9-61.628230
2014-05-01T00:0510087263-47.0-61.628230
2014-05-01T00:0510095263-47.1-61.728330
2014-05-01T00:0510103263-47.2-61.728330
2014-05-01T00:0510112262-47.2-61.828330
2014-05-01T00:0510122262-47.2-61.828330
2014-05-01T00:0510135261-47.4-61.828330
2014-05-01T00:0510149261-47.6-61.728230
2014-05-01T00:0510162260-47.7-61.528230
2014-05-01T00:0510174260-47.8-61.428230
2014-05-01T00:0510183259-47.9-61.228130
2014-05-01T00:0510196259-48.0-61.128130
2014-05-01T00:0510212258-48.1-61.028130
2014-05-01T00:0510225258-48.3-60.928030
2014-05-01T00:0510240257-48.4-60.928031
2014-05-01T00:0510251257-48.5-60.927931
2014-05-01T00:0510260256-48.5-60.927931
2014-05-01T00:0510269256-48.6-61.027931
2014-05-01T00:0510278256-48.7-61.027931
2014-05-01T00:0510286255-48.7-61.027931
2014-05-01T00:0510295255-48.7-61.127931
2014-05-01T00:0510304255-48.8-61.227931
2014-05-01T00:0510313254-48.9-61.227931
2014-05-01T00:0510321254-49.0-61.327930
2014-05-01T00:0510329254-49.1-61.327930
2014-05-01T00:0510338253-49.1-61.327930
2014-05-01T00:0510346253-49.2-61.427930
2014-05-01T00:0510355253-49.3-61.527930
2014-05-01T00:0510364252-49.4-61.627930
2014-05-01T00:0510372252-49.4-61.727930
2014-05-01T00:0610381252-49.5-61.827930
2014-05-01T00:0610390251-49.5-61.827930
2014-05-01T00:0610399251-49.5-62.027931
2014-05-01T00:0610408251-49.6-62.028031
2014-05-01T00:0610417250-49.7-62.128031
2014-05-01T00:0610427250-49.7-62.228031
2014-05-01T00:0610436250-49.8-62.228031
2014-05-01T00:0610444249-49.8-62.328031
2014-05-01T00:0610453249-49.9-62.428031
2014-05-01T00:0610462249-50.0-62.528031
2014-05-01T00:0610471248-50.1-62.528031
2014-05-01T00:0610479248-50.2-62.528031
2014-05-01T00:0610488248-50.2-62.528031
2014-05-01T00:0610497247-50.3-62.628031
2014-05-01T00:0610506247-50.4-62.528131
2014-05-01T00:0610514247-50.5-62.528131
2014-05-01T00:0610523246-50.6-62.528131
2014-05-01T00:0610533246-50.6-62.528131
2014-05-01T00:0610541246-50.7-62.528131
2014-05-01T00:0610550245-50.8-62.628130
2014-05-01T00:0610559245-50.8-62.628130
2014-05-01T00:0610569245-50.9-62.728130
2014-05-01T00:0610578244-50.9-62.728130
2014-05-01T00:0610587244-51.0-62.828130
2014-05-01T00:0610595244-51.1-62.828130
2014-05-01T00:0610603243-51.1-62.828130
2014-05-01T00:0610613243-51.2-62.828130
2014-05-01T00:0610621243-51.3-62.928130
2014-05-01T00:0610631242-51.4-63.128130
2014-05-01T00:0610639242-51.5-63.328130
2014-05-01T00:0710647242-51.5-63.428130
2014-05-01T00:0710655241-51.6-63.628130
2014-05-01T00:0710664241-51.7-63.728230
2014-05-01T00:0710673241-51.8-63.728230
2014-05-01T00:0710683240-51.8-63.728230
2014-05-01T00:0710693240-51.9-63.628229
2014-05-01T00:0710702240-52.0-63.528229
2014-05-01T00:0710710239-52.0-63.528229
2014-05-01T00:0710719239-52.1-63.528229
2014-05-01T00:0710729239-52.2-63.628229
2014-05-01T00:0710739238-52.3-63.828229
2014-05-01T00:0710748238-52.2-63.828230
2014-05-01T00:0710756238-52.2-64.128230
2014-05-01T00:0710766237-52.3-64.428230
2014-05-01T00:0710775237-52.4-64.828230
2014-05-01T00:0710785236-52.4-65.128230
2014-05-01T00:0710795236-52.5-65.428330
2014-05-01T00:0710804236-52.5-65.628330
2014-05-01T00:0710813235-52.1-65.528330
2014-05-01T00:0710822235-51.7-65.528330
2014-05-01T00:0710832235-51.6-65.628330
2014-05-01T00:0710842234-51.6-65.728329
2014-05-01T00:0710851234-51.5-65.828329
2014-05-01T00:0710861234-51.4-65.928429
2014-05-01T00:0710871233-51.3-66.028429
2014-05-01T00:0710881233-51.3-66.228429
2014-05-01T00:0710891233-51.3-66.328429
2014-05-01T00:0710902232-51.3-66.328429
2014-05-01T00:0710912232-51.4-66.328428
2014-05-01T00:0710923232-51.4-66.228428
2014-05-01T00:0810934231-51.5-66.328428
2014-05-01T00:0810944231-51.5-66.328428
2014-05-01T00:0810955230-51.6-66.428428
2014-05-01T00:0810966230-51.7-66.428427
2014-05-01T00:0810976230-51.8-66.528427
2014-05-01T00:0810986229-51.8-66.428427
2014-05-01T00:0810997229-51.8-66.428427
2014-05-01T00:0811007229-51.9-66.528427
2014-05-01T00:0811017228-52.0-66.628327
2014-05-01T00:0811027228-52.1-66.628327
2014-05-01T00:0811037227-52.2-66.728327
2014-05-01T00:0811047227-52.4-66.728327
2014-05-01T00:0811056227-52.4-66.728326
2014-05-01T00:0811065226-52.4-66.728326
2014-05-01T00:0811075226-52.5-66.728226
2014-05-01T00:0811085226-52.6-66.828226
2014-05-01T00:0811094225-52.7-66.928226
2014-05-01T00:0811104225-52.8-66.928126
2014-05-01T00:0811114225-52.9-67.028126
2014-05-01T00:0811125224-53.0-67.128126
2014-05-01T00:0811137224-53.0-67.028026
2014-05-01T00:0811148224-53.0-67.028026
2014-05-01T00:0811160223-53.0-67.027926
2014-05-01T00:0811172223-53.1-67.127926
2014-05-01T00:0811184222-53.2-67.227826
2014-05-01T00:0811198222-53.2-67.327726
2014-05-01T00:0811209221-53.2-67.327725
2014-05-01T00:0811221221-53.3-67.427625
2014-05-01T00:0811236221-53.3-67.527525
2014-05-01T00:0811251220-53.3-67.627425
2014-05-01T00:0911264220-53.5-67.727325
2014-05-01T00:0911275219-53.6-67.727225
2014-05-01T00:0911285219-53.6-67.827124
2014-05-01T00:0911294219-53.7-67.727024
2014-05-01T00:0911302218-53.7-67.727024
2014-05-01T00:0911313218-53.7-67.826924
2014-05-01T00:0911326217-53.7-67.826823
2014-05-01T00:0911343217-53.8-67.826723
2014-05-01T00:0911358216-53.9-67.926723
2014-05-01T00:0911368216-54.0-68.026623
2014-05-01T00:0911378216-54.1-68.026623
2014-05-01T00:0911387215-54.2-68.126623
2014-05-01T00:0911397215-54.3-68.226623
2014-05-01T00:0911408215-54.4-68.326623
2014-05-01T00:0911417214-54.4-68.326622
2014-05-01T00:0911427214-54.3-68.326622
2014-05-01T00:0911438214-54.3-68.326622
2014-05-01T00:0911448213-54.4-68.426522
2014-05-01T00:0911458213-54.5-68.526522
2014-05-01T00:0911471213-54.6-68.626522
2014-05-01T00:0911487212-54.7-68.626422
2014-05-01T00:0911503212-54.8-68.726321
2014-05-01T00:0911516211-55.0-68.726221
2014-05-01T00:0911530211-55.1-68.826121
2014-05-01T00:0911544210-55.2-68.826021
2014-05-01T00:0911554210-55.3-68.825921
2014-05-01T00:0911563210-55.4-68.825721
2014-05-01T00:0911574209-55.4-68.825622
2014-05-01T00:0911585209-55.5-68.825522
2014-05-01T00:0911596209-55.5-68.825422
2014-05-01T00:1011611208-55.6-68.925222
2014-05-01T00:1011627207-55.6-68.925123
2014-05-01T00:1011639207-55.6-68.925023
2014-05-01T00:1011649207-55.7-69.124923
2014-05-01T00:1011659206-55.7-69.124824
2014-05-01T00:1011670206-55.6-69.224724
2014-05-01T00:1011683206-55.8-69.424724
2014-05-01T00:1011694205-55.8-69.624625
2014-05-01T00:1011707205-55.9-69.824525
2014-05-01T00:1011723204-55.8-69.924426
2014-05-01T00:1011739204-55.8-70.124326
2014-05-01T00:1011752203-55.8-70.324226
2014-05-01T00:1011762203-55.8-70.424127
2014-05-01T00:1011776203-55.8-70.624027
2014-05-01T00:1011794202-55.6-70.623928
2014-05-01T00:1011811202-55.5-70.723828
2014-05-01T00:1011827201-55.5-70.823729
2014-05-01T00:1011845200-55.5-71.023629
2014-05-01T00:1011864200-55.4-71.223529
2014-05-01T00:1011877199-55.3-71.323530
2014-05-01T00:1011888199-55.3-71.323430
2014-05-01T00:1011896199-55.3-71.423330
2014-05-01T00:1011906199-55.3-71.623331
2014-05-01T00:1011917198-55.3-71.823331
2014-05-01T00:1011925198-55.3-72.023232
2014-05-01T00:1011933198-55.3-72.223232
2014-05-01T00:1011942197-55.2-72.423232
2014-05-01T00:1011951197-55.2-72.623233
2014-05-01T00:1011960197-55.1-72.923233
2014-05-01T00:1011969197-55.0-73.023333
2014-05-01T00:1111978196-54.9-73.323333
2014-05-01T00:1111988196-54.9-73.523334
2014-05-01T00:1111997196-55.0-73.823434
2014-05-01T00:1112006196-55.1-74.223434
2014-05-01T00:1112015195-55.1-74.523534
2014-05-01T00:1112025195-55.1-74.823534
2014-05-01T00:1112034195-55.1-75.123635
2014-05-01T00:1112045194-55.2-75.423735
2014-05-01T00:1112055194-55.2-75.723735
2014-05-01T00:1112064194-55.1-75.923835
2014-05-01T00:1112072193-55.1-76.123935
2014-05-01T00:1112081193-55.1-76.524035
2014-05-01T00:1112090193-55.0-76.824135
2014-05-01T00:1112098193-54.9-77.024135
2014-05-01T00:1112107192-54.6-77.024235
2014-05-01T00:1112115192-54.2-76.924335
2014-05-01T00:1112124192-54.0-76.824435
2014-05-01T00:1112134192-53.9-76.824435
2014-05-01T00:1112143191-53.8-76.824535
2014-05-01T00:1112154191-53.9-77.024535
2014-05-01T00:1112164191-53.8-77.024635
2014-05-01T00:1112173190-53.7-77.024635
2014-05-01T00:1112182190-53.7-77.124735
2014-05-01T00:1112191190-53.6-77.324735
2014-05-01T00:1112200190-53.6-77.624835
2014-05-01T00:1112209189-53.6-77.924835
2014-05-01T00:1112219189-53.6-78.024835
2014-05-01T00:1112228189-53.5-78.024935
2014-05-01T00:1112236189-53.3-78.024934
2014-05-01T00:1112246188-53.1-78.025034
2014-05-01T00:1212255188-53.1-78.125034
2014-05-01T00:1212264188-53.1-78.325134
2014-05-01T00:1212273188-53.0-78.425134
2014-05-01T00:1212281187-52.9-78.525234
2014-05-01T00:1212291187-52.6-78.525334
2014-05-01T00:1212300187-52.5-78.425334
2014-05-01T00:1212310186-52.5-78.425434
2014-05-01T00:1212322186-52.5-78.525534
2014-05-01T00:1212337186-52.5-78.725534
2014-05-01T00:1212352185-52.6-78.925633
2014-05-01T00:1212369185-52.7-79.225633
2014-05-01T00:1212383184-52.6-79.525733
2014-05-01T00:1212392184-52.4-79.725733
2014-05-01T00:1212400184-51.8-79.825733
2014-05-01T00:1212409184-51.0-79.525733
2014-05-01T00:1212417183-50.6-79.325733
2014-05-01T00:1212425183-50.5-79.225732
2014-05-01T00:1212434183-50.3-79.225732
2014-05-01T00:1212443183-50.0-79.225732
2014-05-01T00:1212453182-49.8-79.125732
2014-05-01T00:1212462182-49.8-79.325732
2014-05-01T00:1212471182-49.8-79.625732
2014-05-01T00:1212480182-49.6-79.825731
2014-05-01T00:1212489181-49.6-79.825731
2014-05-01T00:1212498181-49.7-79.925831
2014-05-01T00:1212508181-49.7-80.025831
2014-05-01T00:1212516181-49.8-80.225831
2014-05-01T00:1212525180-49.7-80.325831
2014-05-01T00:1212534180-49.7-80.425930
2014-05-01T00:1212543180-49.7-80.525930
2014-05-01T00:1312552180-49.7-80.525930
2014-05-01T00:1312562179-49.7-80.625930
2014-05-01T00:1312571179-49.7-80.726030
2014-05-01T00:1312579179-49.8-80.826029
2014-05-01T00:1312588179-49.8-80.926029
2014-05-01T00:1312596178-49.9-81.026029
2014-05-01T00:1312605178-50.0-81.126129
2014-05-01T00:1312614178-50.1-81.326129
2014-05-01T00:1312623178-50.1-81.526128
2014-05-01T00:1312633177-50.0-81.626128
2014-05-01T00:1312642177-49.8-81.526228
2014-05-01T00:1312652177-49.8-81.326228
2014-05-01T00:1312661177-49.8-81.326227
2014-05-01T00:1312670176-49.9-81.326227
2014-05-01T00:1312679176-49.9-81.326327
2014-05-01T00:1312689176-49.9-81.426327
2014-05-01T00:1312697176-49.9-81.526327
2014-05-01T00:1312706175-49.9-81.626326
2014-05-01T00:1312714175-49.8-81.626326
2014-05-01T00:1312723175-49.7-81.526326
2014-05-01T00:1312732175-49.7-81.426426
2014-05-01T00:1312740175-49.7-81.526426
2014-05-01T00:1312748174-49.8-81.526425
2014-05-01T00:1312758174-49.8-81.626425
2014-05-01T00:1312766174-49.9-81.826425
2014-05-01T00:1312775174-49.9-82.026425
2014-05-01T00:1312784173-49.8-82.026425
2014-05-01T00:1312793173-49.7-81.926425
2014-05-01T00:1312803173-49.6-81.826524
2014-05-01T00:1312812173-49.6-81.826524
2014-05-01T00:1412822172-49.6-81.926424
2014-05-01T00:1412832172-49.5-82.126424
2014-05-01T00:1412841172-49.4-82.326424
2014-05-01T00:1412851172-49.1-82.226424
2014-05-01T00:1412861171-48.8-81.826424
2014-05-01T00:1412871171-48.7-81.326424
2014-05-01T00:1412880171-48.8-81.126424
2014-05-01T00:1412890171-48.8-81.026324
2014-05-01T00:1412900170-48.9-81.026325
2014-05-01T00:1412910170-49.0-81.126325
2014-05-01T00:1412920170-49.1-81.326325
2014-05-01T00:1412930170-49.2-81.426325
2014-05-01T00:1412942169-49.3-81.526325
2014-05-01T00:1412952169-49.4-81.526325
2014-05-01T00:1412961169-49.5-81.626325
2014-05-01T00:1412971168-49.6-81.826325
2014-05-01T00:1412982168-49.7-82.026326
2014-05-01T00:1412991168-49.8-82.026326
2014-05-01T00:1413000168-49.8-81.926326
2014-05-01T00:1413010168-49.8-81.826326
2014-05-01T00:1413019167-49.9-81.826326
2014-05-01T00:1413029167-50.0-81.926326
2014-05-01T00:1413038167-50.1-82.126426
2014-05-01T00:1413046167-50.2-82.226426
2014-05-01T00:1413056166-50.3-82.226426
2014-05-01T00:1413065166-50.3-82.226527
2014-05-01T00:1413075166-50.4-82.426527
2014-05-01T00:1413085166-50.5-82.626527
2014-05-01T00:1413095165-50.6-82.726627
2014-05-01T00:1413105165-50.7-82.726627
2014-05-01T00:1513114165-50.7-82.726727
2014-05-01T00:1513124165-50.7-82.726727
2014-05-01T00:1513133164-50.7-82.726827
2014-05-01T00:1513142164-50.8-82.626827
2014-05-01T00:1513152164-50.8-82.626927
2014-05-01T00:1513161164-50.9-82.626927
2014-05-01T00:1513170163-51.0-82.727027
2014-05-01T00:1513180163-51.0-82.827027
2014-05-01T00:1513191163-51.1-83.127127
2014-05-01T00:1513200163-51.1-83.427227
2014-05-01T00:1513210162-51.0-83.427227
2014-05-01T00:1513220162-50.8-83.227327
2014-05-01T00:1513230162-50.8-82.927326
2014-05-01T00:1513240162-50.8-82.727426
2014-05-01T00:1513250161-50.9-82.727526
2014-05-01T00:1513260161-50.9-82.827525
2014-05-01T00:1513271161-50.9-82.827625
2014-05-01T00:1513281161-50.9-82.727625
2014-05-01T00:1513290160-51.0-82.627725
2014-05-01T00:1513299160-50.9-82.427724
2014-05-01T00:1513307160-50.9-82.427824
2014-05-01T00:1513318160-51.0-82.727824
2014-05-01T00:1513329159-51.0-82.927923
2014-05-01T00:1513339159-51.1-83.028023
2014-05-01T00:1513348159-51.2-82.928023
2014-05-01T00:1513359159-51.2-82.828122
2014-05-01T00:1513370159-51.2-82.828122
2014-05-01T00:1513381158-51.2-82.928222
2014-05-01T00:1513391158-51.3-83.128322
2014-05-01T00:1513401158-51.3-83.328321
2014-05-01T00:1613410158-51.3-83.328421
2014-05-01T00:1613420157-51.3-83.428421
2014-05-01T00:1613429157-51.3-83.328521
2014-05-01T00:1613439157-51.1-82.928520
2014-05-01T00:1613449157-51.0-82.528520
2014-05-01T00:1613459156-51.0-82.428620
2014-05-01T00:1613471156-51.2-82.628619
2014-05-01T00:1613482156-51.3-82.928719
2014-05-01T00:1613494155-51.4-83.128719
2014-05-01T00:1613509155-51.4-83.128719
2014-05-01T00:1613523155-51.4-83.028818
2014-05-01T00:1613535155-51.5-83.028818
2014-05-01T00:1613546154-51.6-83.128818
2014-05-01T00:1613560154-51.7-83.128818
2014-05-01T00:1613571154-51.8-83.228917
2014-05-01T00:1613580153-51.9-83.528917
2014-05-01T00:1613589153-51.9-83.628917
2014-05-01T00:1613599153-51.8-83.528917
2014-05-01T00:1613609153-51.8-83.428916
2014-05-01T00:1613618153-51.9-83.328916
2014-05-01T00:1613627152-52.0-83.228916
2014-05-01T00:1613637152-52.0-83.128916
2014-05-01T00:1613646152-52.1-83.228916
2014-05-01T00:1613656152-52.2-83.228916
2014-05-01T00:1613666151-52.3-83.328915
2014-05-01T00:1613675151-52.3-83.528915
2014-05-01T00:1613685151-52.4-83.629015
2014-05-01T00:1613694151-52.5-83.629015
2014-05-01T00:1613705151-52.6-83.629015
2014-05-01T00:1613714150-52.6-83.629014
2014-05-01T00:1713723150-52.7-83.729014
2014-05-01T00:1713733150-52.7-83.828914
2014-05-01T00:1713743150-52.8-83.928914
2014-05-01T00:1713752149-52.8-84.028914
2014-05-01T00:1713760149-52.7-84.128814
2014-05-01T00:1713770149-52.6-84.128814
2014-05-01T00:1713780149-52.6-84.128714
2014-05-01T00:1713789149-52.5-84.128614
2014-05-01T00:1713798148-52.5-84.028614
2014-05-01T00:1713808148-52.5-83.828514
2014-05-01T00:1713819148-52.5-83.728414
2014-05-01T00:1713828148-52.5-83.628314
2014-05-01T00:1713838147-52.4-83.528214
2014-05-01T00:1713848147-52.5-83.428114
2014-05-01T00:1713858147-52.6-83.528014
2014-05-01T00:1713867147-52.6-83.628014
2014-05-01T00:1713878147-52.7-83.827914
2014-05-01T00:1713887146-52.7-83.927814
2014-05-01T00:1713897146-52.6-83.927713
2014-05-01T00:1713906146-52.6-83.927713
2014-05-01T00:1713915146-52.6-83.927613
2014-05-01T00:1713924145-52.6-83.827513
2014-05-01T00:1713934145-52.6-83.927413
2014-05-01T00:1713943145-52.6-83.827313
2014-05-01T00:1713952145-52.7-83.927212
2014-05-01T00:1713961145-52.7-83.927212
2014-05-01T00:1713971144-52.6-83.927112
2014-05-01T00:1713980144-52.5-83.827012
2014-05-01T00:1713990144-52.5-83.726912
2014-05-01T00:1714000144-52.4-83.626812
2014-05-01T00:1814009144-52.5-83.626811
2014-05-01T00:1814019143-52.6-83.526711
2014-05-01T00:1814028143-52.6-83.526611
2014-05-01T00:1814037143-52.7-83.626511
2014-05-01T00:1814048143-52.7-83.626411
2014-05-01T00:1814058143-52.7-83.626411
2014-05-01T00:1814068142-52.8-83.726311
2014-05-01T00:1814078142-52.9-83.826211
2014-05-01T00:1814089142-53.0-83.826111
2014-05-01T00:1814100142-53.0-83.926011
2014-05-01T00:1814110141-53.1-83.925910
2014-05-01T00:1814120141-53.2-84.125810
2014-05-01T00:1814130141-53.3-84.325710
2014-05-01T00:1814140141-53.4-84.525610
2014-05-01T00:1814149141-53.4-84.725410
2014-05-01T00:1814159140-53.3-84.725310
2014-05-01T00:1814168140-52.9-84.425210
2014-05-01T00:1814177140-52.8-84.225110
2014-05-01T00:1814187140-52.9-84.125010
2014-05-01T00:1814196139-53.0-84.124910
2014-05-01T00:1814206139-53.0-84.124810
2014-05-01T00:1814215139-52.9-84.024710
2014-05-01T00:1814225139-52.9-84.024710
2014-05-01T00:1814234139-53.0-84.024610
2014-05-01T00:1814244138-52.9-83.924510
2014-05-01T00:1814252138-52.9-83.924511
2014-05-01T00:1814261138-52.9-84.024511
2014-05-01T00:1814270138-53.0-84.224511
2014-05-01T00:1814279138-53.1-84.324511
2014-05-01T00:1814289137-52.9-84.224511
2014-05-01T00:1914299137-52.8-84.124611
2014-05-01T00:1914309137-52.9-83.924611
2014-05-01T00:1914318137-52.9-83.924711
2014-05-01T00:1914327137-52.9-83.824712
2014-05-01T00:1914338136-52.9-83.924812
2014-05-01T00:1914347136-52.9-83.924812
2014-05-01T00:1914356136-52.9-83.924912
2014-05-01T00:1914365136-53.0-84.024913
2014-05-01T00:1914375136-53.0-84.124913
2014-05-01T00:1914384135-53.0-84.224913
2014-05-01T00:1914392135-53.0-84.324913
2014-05-01T00:1914402135-52.8-84.224914
2014-05-01T00:1914412135-52.7-84.124914
2014-05-01T00:1914421135-52.6-84.024814
2014-05-01T00:1914431134-52.7-83.824814
2014-05-01T00:1914440134-52.7-83.724814
2014-05-01T00:1914449134-52.7-83.624814
2014-05-01T00:1914458134-52.8-83.624815
2014-05-01T00:1914467134-52.8-83.624715
2014-05-01T00:1914477134-52.9-83.724715
2014-05-01T00:1914486133-53.0-83.824715
2014-05-01T00:1914495133-53.0-84.024615
2014-05-01T00:1914504133-52.9-84.024615
2014-05-01T00:1914514133-52.8-83.924515
2014-05-01T00:1914524133-52.8-84.024515
2014-05-01T00:1914533132-52.8-84.024415
2014-05-01T00:1914541132-52.8-84.024415
2014-05-01T00:1914550132-52.9-84.024315
2014-05-01T00:1914559132-52.8-84.024215
2014-05-01T00:1914568132-52.8-84.024215
2014-05-01T00:2014577131-52.7-84.024115
2014-05-01T00:2014586131-52.7-83.924115
2014-05-01T00:2014595131-52.7-83.924015
2014-05-01T00:2014605131-52.7-83.824015
2014-05-01T00:2014614131-52.8-83.824015
2014-05-01T00:2014623131-52.9-83.923915
2014-05-01T00:2014632130-52.9-83.823915
2014-05-01T00:2014641130-52.9-83.823915
2014-05-01T00:2014651130-52.9-83.823816
2014-05-01T00:2014661130-53.1-83.823816
2014-05-01T00:2014669130-53.2-83.923816
2014-05-01T00:2014678129-53.3-84.123816
2014-05-01T00:2014687129-53.3-84.223816
2014-05-01T00:2014696129-53.4-84.223816
2014-05-01T00:2014707129-53.4-84.223716
2014-05-01T00:2014716129-53.5-84.323716
2014-05-01T00:2014725128-53.6-84.323717
2014-05-01T00:2014736128-53.6-84.323717
2014-05-01T00:2014746128-53.7-84.323717
2014-05-01T00:2014756128-53.8-84.423717
2014-05-01T00:2014766128-53.8-84.423717
2014-05-01T00:2014776127-53.9-84.523817
2014-05-01T00:2014785127-53.8-84.523817
2014-05-01T00:2014795127-53.8-84.423817
2014-05-01T00:2014804127-53.8-84.323817
2014-05-01T00:2014814127-53.8-84.323917
2014-05-01T00:2014823127-53.9-84.423917
2014-05-01T00:2014832126-54.0-84.524017
2014-05-01T00:2014842126-54.0-84.624017
2014-05-01T00:2014852126-54.1-84.724117
2014-05-01T00:2114861126-54.1-84.824217
2014-05-01T00:2114872126-54.2-84.924217
2014-05-01T00:2114881125-54.0-85.024317
2014-05-01T00:2114889125-53.9-85.124417
2014-05-01T00:2114898125-53.8-85.124517
2014-05-01T00:2114907125-53.6-85.024517
2014-05-01T00:2114917125-53.3-84.924617
2014-05-01T00:2114925125-53.2-84.724617
2014-05-01T00:2114933124-53.1-84.324617
2014-05-01T00:2114942124-53.0-84.124617
2014-05-01T00:2114951124-52.9-84.024617
2014-05-01T00:2114959124-52.9-83.924716
2014-05-01T00:2114968124-53.0-83.924716
2014-05-01T00:2114977124-53.0-84.024616
2014-05-01T00:2114986123-53.0-84.124616
2014-05-01T00:2114995123-52.9-84.124616
2014-05-01T00:2115005123-52.8-84.124716
2014-05-01T00:2115014123-52.8-84.024716
2014-05-01T00:2115023123-52.8-84.024715
2014-05-01T00:2115032123-52.8-83.924715
2014-05-01T00:2115040122-52.7-83.824815
2014-05-01T00:2115050122-52.7-83.824815
2014-05-01T00:2115059122-52.7-83.724915
2014-05-01T00:2115067122-52.7-83.824915
2014-05-01T00:2115077122-52.7-83.825014
2014-05-01T00:2115086121-52.8-83.825114
2014-05-01T00:2115095121-52.6-83.725214
2014-05-01T00:2115105121-52.5-83.625314
2014-05-01T00:2115115121-52.5-83.625314
2014-05-01T00:2115124121-52.6-83.725415
2014-05-01T00:2215134121-52.7-83.625515
2014-05-01T00:2215144120-52.6-83.625615
2014-05-01T00:2215153120-52.5-83.625715
2014-05-01T00:2215163120-52.5-83.725715
2014-05-01T00:2215172120-52.6-83.925815
2014-05-01T00:2215182120-52.6-83.825915
2014-05-01T00:2215191120-52.6-83.925915
2014-05-01T00:2215200119-52.7-83.826015
2014-05-01T00:2215209119-52.8-83.926015
2014-05-01T00:2215218119-52.8-84.126115
2014-05-01T00:2215228119-52.8-84.126115
2014-05-01T00:2215237119-52.7-84.026215
2014-05-01T00:2215246119-52.8-83.926315
2014-05-01T00:2215256118-52.8-83.926315
2014-05-01T00:2215266118-52.9-83.926415
2014-05-01T00:2215276118-52.9-83.826415
2014-05-01T00:2215285118-53.0-83.826415
2014-05-01T00:2215294118-53.0-83.926515
2014-05-01T00:2215303117-53.1-84.026515
2014-05-01T00:2215311117-53.2-84.126515
2014-05-01T00:2215320117-53.3-84.126515
2014-05-01T00:2215329117-53.3-84.126515
2014-05-01T00:2215339117-53.4-84.226515
2014-05-01T00:2215349117-53.5-84.326515
2014-05-01T00:2215358116-53.6-84.326515
2014-05-01T00:2215367116-53.6-84.326515
2014-05-01T00:2215376116-53.6-84.226515
2014-05-01T00:2215387116-53.7-84.126515
2014-05-01T00:2215396116-53.7-83.926515
2014-05-01T00:2215405116-53.8-83.926515
2014-05-01T00:2315415115-53.8-84.126415
2014-05-01T00:2315424115-53.9-84.326415
2014-05-01T00:2315435115-54.1-84.426415
2014-05-01T00:2315445115-54.1-84.526415
2014-05-01T00:2315455115-54.2-84.626415
2014-05-01T00:2315464115-54.2-84.726415
2014-05-01T00:2315473114-54.3-84.726415
2014-05-01T00:2315483114-54.4-84.826415
2014-05-01T00:2315493114-54.4-84.826414
2014-05-01T00:2315503114-54.4-84.926314
2014-05-01T00:2315512114-54.4-85.026314
2014-05-01T00:2315522114-54.4-85.126314
2014-05-01T00:2315532113-54.3-85.226314
2014-05-01T00:2315542113-54.2-85.126313
2014-05-01T00:2315552113-54.1-85.126413
2014-05-01T00:2315561113-54.1-85.026413
2014-05-01T00:2315572113-54.1-84.826413
2014-05-01T00:2315582112-54.1-84.726413
2014-05-01T00:2315592112-54.1-84.626412
2014-05-01T00:2315602112-54.2-84.626512
2014-05-01T00:2315612112-54.1-84.626512
2014-05-01T00:2315623112-54.1-84.626512
2014-05-01T00:2315633112-54.2-84.626612
2014-05-01T00:2315642111-54.2-84.626612
2014-05-01T00:2315651111-54.2-84.726712
2014-05-01T00:2315659111-54.3-84.726712
2014-05-01T00:2315669111-54.3-84.626712
2014-05-01T00:2315680111-54.3-84.626812
2014-05-01T00:2315690111-54.4-84.626811
2014-05-01T00:2315700110-54.5-84.626811
2014-05-01T00:2415710110-54.6-84.826811
2014-05-01T00:2415719110-54.7-84.926911
2014-05-01T00:2415728110-54.7-85.026911
2014-05-01T00:2415738110-54.7-85.026911
2014-05-01T00:2415747110-54.8-85.026911
2014-05-01T00:2415757109-54.9-85.126911
2014-05-01T00:2415766109-55.0-84.926911
2014-05-01T00:2415775109-55.1-84.826911
2014-05-01T00:2415785109-55.0-84.626911
2014-05-01T00:2415795109-54.9-84.427011
2014-05-01T00:2415805109-55.0-84.427011
2014-05-01T00:2415815108-55.1-84.627011
2014-05-01T00:2415825108-55.3-84.727010
2014-05-01T00:2415835108-55.4-84.927010
2014-05-01T00:2415844108-55.5-85.127010
2014-05-01T00:2415853108-55.6-85.327010
2014-05-01T00:2415862108-55.7-85.527010
2014-05-01T00:2415872107-55.7-85.527010
2014-05-01T00:2415882107-55.8-85.526910
2014-05-01T00:2415891107-55.8-85.526910
2014-05-01T00:2415900107-55.8-85.526910
2014-05-01T00:2415910107-55.9-85.626910
2014-05-01T00:2415920107-56.0-85.626810
2014-05-01T00:2415929107-56.1-85.72689
2014-05-01T00:2415937106-56.1-85.72679
2014-05-01T00:2415946106-56.0-85.62679
2014-05-01T00:2415956106-56.0-85.52669
2014-05-01T00:2415966106-56.1-85.52669
2014-05-01T00:2415976106-56.1-85.62659
2014-05-01T00:2415986106-56.2-85.72659
2014-05-01T00:2515995105-56.3-85.82649
2014-05-01T00:2516005105-56.3-85.92648
2014-05-01T00:2516015105-56.1-85.92638
2014-05-01T00:2516024105-56.0-85.82628
2014-05-01T00:2516034105-56.0-85.72628
2014-05-01T00:2516043105-56.0-85.62618
2014-05-01T00:2516052104-56.1-85.52608
2014-05-01T00:2516062104-56.1-85.42608
2014-05-01T00:2516073104-56.2-85.42598
2014-05-01T00:2516081104-56.2-85.52598
2014-05-01T00:2516090104-56.2-85.62588
2014-05-01T00:2516100104-56.2-85.72588
2014-05-01T00:2516109104-56.1-85.72578
2014-05-01T00:2516119103-56.2-85.72578
2014-05-01T00:2516128103-56.2-85.72578
2014-05-01T00:2516137103-56.2-85.62578
2014-05-01T00:2516146103-56.2-85.62568
2014-05-01T00:2516155103-56.2-85.62568
2014-05-01T00:2516164103-56.2-85.52568
2014-05-01T00:2516174102-56.3-85.42568
2014-05-01T00:2516183102-56.3-85.52578
2014-05-01T00:2516192102-56.4-85.62578
2014-05-01T00:2516202102-56.4-85.62578
2014-05-01T00:2516210102-56.4-85.72578
2014-05-01T00:2516220102-56.4-85.72588
2014-05-01T00:2516231102-56.3-85.72588
2014-05-01T00:2516242101-56.4-85.62598
2014-05-01T00:2516252101-56.5-85.72598
2014-05-01T00:2516262101-56.5-85.72607
2014-05-01T00:2516272101-56.6-85.72607
2014-05-01T00:2616281101-56.7-85.82617
2014-05-01T00:2616290101-56.6-85.82627
2014-05-01T00:2616300100-56.7-85.92637
2014-05-01T00:2616309100-56.7-85.92637
2014-05-01T00:2616318100-56.7-85.92647
2014-05-01T00:2616329100-56.8-85.82657
2014-05-01T00:2616339100-56.8-85.82667
2014-05-01T00:2616347100-56.9-85.82677
2014-05-01T00:2616357100-56.9-85.92686
2014-05-01T00:261636799-57.0-86.02696
2014-05-01T00:261637799-56.9-86.02706
2014-05-01T00:261638799-56.9-86.02716
2014-05-01T00:261639699-56.8-85.82736
2014-05-01T00:261640599-56.8-85.82746
2014-05-01T00:261641499-56.9-85.92756
2014-05-01T00:261642599-56.9-86.12766
2014-05-01T00:261643698-56.9-86.12786
2014-05-01T00:261644598-56.9-86.12796
2014-05-01T00:261645498-57.0-86.02806
2014-05-01T00:261646498-57.0-85.92816
2014-05-01T00:261647598-57.0-85.92826
2014-05-01T00:261648598-57.0-85.82836
2014-05-01T00:261649597-57.1-85.82846
2014-05-01T00:261650497-57.1-85.92856
2014-05-01T00:261651497-57.1-86.12856
2014-05-01T00:261652597-57.2-86.12856
2014-05-01T00:261653697-57.3-86.22856
2014-05-01T00:261654697-57.4-86.32856
2014-05-01T00:261655597-57.5-86.32856
2014-05-01T00:261656496-57.5-86.32856
2014-05-01T00:271657496-57.5-86.22846
2014-05-01T00:271658496-57.7-86.32836
2014-05-01T00:271659596-57.6-86.52836
2014-05-01T00:271660596-57.6-86.62826
2014-05-01T00:271661496-57.6-86.62816
2014-05-01T00:271662395-57.7-86.62806
2014-05-01T00:271663395-57.7-86.52806
2014-05-01T00:271664395-57.7-86.42796
2014-05-01T00:271665395-57.7-86.32786
2014-05-01T00:271666495-57.7-86.32786
2014-05-01T00:271667495-57.8-86.22776
2014-05-01T00:271668395-57.9-86.22766
2014-05-01T00:271669394-57.8-86.02756
2014-05-01T00:271670394-57.9-86.02756
2014-05-01T00:271671394-58.0-86.12746
2014-05-01T00:271672394-58.2-86.32736
2014-05-01T00:271673394-58.2-86.42726
2014-05-01T00:271674394-58.3-86.52726
2014-05-01T00:271675394-58.3-86.62716
2014-05-01T00:271676193-58.4-86.72706
2014-05-01T00:271677193-58.4-86.82706
2014-05-01T00:271678193-58.5-86.82696
2014-05-01T00:271679293-58.6-86.92695
2014-05-01T00:271680293-58.6-86.92695
2014-05-01T00:271681293-58.7-87.02696
2014-05-01T00:271682193-58.8-86.92696
2014-05-01T00:271683092-58.9-87.02696
2014-05-01T00:271684092-59.0-87.02696
2014-05-01T00:271685192-59.1-87.12696
2014-05-01T00:271686292-59.3-87.22706
2014-05-01T00:281687292-59.3-87.22706
2014-05-01T00:281688392-59.5-87.32716
2014-05-01T00:281689391-59.5-87.52726
2014-05-01T00:281690291-59.7-87.62726
2014-05-01T00:281691191-59.8-87.72736
2014-05-01T00:281692291-59.8-87.72746
2014-05-01T00:281693291-59.8-87.82756
2014-05-01T00:281694191-59.9-87.72766
2014-05-01T00:281695191-59.9-87.72776
2014-05-01T00:281696290-59.9-87.62786
2014-05-01T00:281697290-59.9-87.62796
2014-05-01T00:281698390-59.9-87.72806
2014-05-01T00:281699290-60.0-87.72816
2014-05-01T00:281700290-60.1-87.92826
2014-05-01T00:281701390-60.1-87.92846
2014-05-01T00:281702290-60.2-87.82856
2014-05-01T00:281703289-60.2-87.82866
2014-05-01T00:281704289-60.2-87.82876
2014-05-01T00:281705189-60.3-87.52886
2014-05-01T00:281706189-60.3-87.32896
2014-05-01T00:281707289-60.4-87.42906
2014-05-01T00:281708389-60.5-87.42917
2014-05-01T00:281709389-60.6-87.52927
2014-05-01T00:281710388-60.6-87.52947
2014-05-01T00:281711288-60.7-87.72957
2014-05-01T00:281712188-60.7-87.82967
2014-05-01T00:281713288-60.8-87.92977
2014-05-01T00:281714288-60.9-88.02987
2014-05-01T00:281715288-61.0-88.12997
2014-05-01T00:281716288-61.0-88.23007
2014-05-01T00:291717387-61.0-88.33017
2014-05-01T00:291718387-60.9-88.43027
2014-05-01T00:291719287-60.9-88.43037
2014-05-01T00:291720287-61.0-88.33047
2014-05-01T00:291721287-60.9-88.33057
2014-05-01T00:291722287-60.9-88.23057
2014-05-01T00:291723187-60.9-88.13067
2014-05-01T00:291724186-60.9-88.13077
2014-05-01T00:291725186-61.0-88.13077
2014-05-01T00:291726086-61.1-88.23087
2014-05-01T00:291726986-61.2-88.23087
2014-05-01T00:291728086-61.2-88.33097
2014-05-01T00:291729186-61.2-88.53097
2014-05-01T00:291730186-61.4-88.73097
2014-05-01T00:291731086-61.4-88.93097
2014-05-01T00:291731985-61.2-88.93096
2014-05-01T00:291732985-60.9-88.83086
2014-05-01T00:291733985-60.9-88.73086
2014-05-01T00:291734985-60.9-88.63075
2014-05-01T00:291736085-60.9-88.43065
2014-05-01T00:291737085-60.9-88.23055
2014-05-01T00:291737985-60.9-88.13035
2014-05-01T00:291738884-60.8-87.93025
2014-05-01T00:291739984-60.9-87.83005
2014-05-01T00:291740984-60.9-87.72995
2014-05-01T00:291741884-61.0-87.62975
2014-05-01T00:291742884-61.0-87.62965
2014-05-01T00:291743784-61.1-87.62965
2014-05-01T00:291744684-61.2-87.82955
2014-05-01T00:291745684-61.2-87.92965
2014-05-01T00:301746683-61.1-88.02965
2014-05-01T00:301747583-61.2-88.22976
2014-05-01T00:301748683-61.2-88.52986
2014-05-01T00:301749683-61.3-88.73006
2014-05-01T00:301750483-61.3-88.83016
2014-05-01T00:301751283-61.1-88.93036
2014-05-01T00:301752283-60.9-88.93057
2014-05-01T00:301753283-60.9-88.83077
2014-05-01T00:301754382-60.9-88.73097
2014-05-01T00:301755382-60.9-88.63107
2014-05-01T00:301756482-60.8-88.43127
2014-05-01T00:301757382-60.8-88.33137
2014-05-01T00:301758282-60.9-88.13157
2014-05-01T00:301759282-60.9-87.93167
2014-05-01T00:301760382-60.9-87.83177
2014-05-01T00:301761381-60.9-87.93187
2014-05-01T00:301762381-60.8-88.03186
2014-05-01T00:301763381-60.7-88.13186
2014-05-01T00:301764481-60.7-88.23186
2014-05-01T00:301765281-60.7-88.23176
2014-05-01T00:301766281-60.5-88.03165
2014-05-01T00:301767281-60.2-87.83155
2014-05-01T00:301768181-60.2-87.73135
2014-05-01T00:301769080-60.2-87.53115
2014-05-01T00:301770080-60.3-87.33094
2014-05-01T00:301771180-60.3-87.23064
2014-05-01T00:301772280-60.4-87.13034
2014-05-01T00:301773280-60.4-87.13004
2014-05-01T00:301774380-60.4-87.02974
2014-05-01T00:301775280-60.5-87.02944
2014-05-01T00:311776280-60.5-87.12914
2014-05-01T00:311777179-60.5-87.22884
2014-05-01T00:311778179-60.6-87.42854
2014-05-01T00:311779279-60.7-87.42824
2014-05-01T00:311780279-60.8-87.62794
2014-05-01T00:311781179-60.9-87.92764
2014-05-01T00:311782079-60.8-88.12744
2014-05-01T00:311783079-60.8-88.12714
2014-05-01T00:311784279-60.8-88.12694
2014-05-01T00:311785478-60.9-88.22664
2014-05-01T00:311786578-61.0-88.22644
2014-05-01T00:311787778-61.2-88.32624
2014-05-01T00:311788878-61.3-88.62604
2014-05-01T00:311789878-61.4-88.62594
2014-05-01T00:311790778-61.5-88.72585
2014-05-01T00:311791678-61.5-88.72575
2014-05-01T00:311792877-61.7-88.62565
2014-05-01T00:311793877-61.8-88.62565
2014-05-01T00:311794777-61.9-88.52565
2014-05-01T00:311795777-61.9-88.42575
2014-05-01T00:311796777-61.8-88.52575
2014-05-01T00:311797777-61.9-88.52585
2014-05-01T00:311798677-62.0-88.52606
2014-05-01T00:311799677-62.0-88.62616
2014-05-01T00:311800676-62.0-88.72636
2014-05-01T00:311801776-62.0-88.82656
2014-05-01T00:311802576-62.0-88.92676
2014-05-01T00:311803676-62.0-89.02696
2014-05-01T00:311804676-61.9-89.12716
2014-05-01T00:311805576-61.9-89.12736
2014-05-01T00:321806576-61.9-89.22756
2014-05-01T00:321807576-62.0-89.22766
2014-05-01T00:321808575-62.0-89.22786
2014-05-01T00:321809475-61.9-89.12796
2014-05-01T00:321810375-61.9-89.02816
2014-05-01T00:321811375-61.9-88.82826
2014-05-01T00:321812375-61.8-88.52826
2014-05-01T00:321813475-61.8-88.32835
2014-05-01T00:321814475-61.9-88.32835
2014-05-01T00:321815475-61.8-88.22845
2014-05-01T00:321816375-61.7-88.12845
2014-05-01T00:321817374-61.7-87.92835
2014-05-01T00:321818474-61.8-88.12835
2014-05-01T00:321819574-61.9-88.32834
2014-05-01T00:321820574-61.9-88.32824
2014-05-01T00:321821474-61.7-88.42824
2014-05-01T00:321822574-61.7-88.42814
2014-05-01T00:321823474-61.7-88.42803
2014-05-01T00:321824374-61.5-88.42793
2014-05-01T00:321825373-61.4-88.32783
2014-05-01T00:321826473-61.4-88.32763
2014-05-01T00:321827573-61.5-88.32742
2014-05-01T00:321828573-61.5-88.32722
2014-05-01T00:321829773-61.5-88.12692
2014-05-01T00:321830873-61.6-88.12661
2014-05-01T00:321831773-61.6-88.02611
2014-05-01T00:321832673-61.7-88.12541
2014-05-01T00:321833772-61.8-88.22451
2014-05-01T00:321834872-61.8-88.22321
2014-05-01T00:321835872-61.8-88.22160
2014-05-01T00:331836872-61.9-88.31980
2014-05-01T00:331837872-62.0-88.51800
2014-05-01T00:331838972-62.1-88.71661
2014-05-01T00:331840172-62.3-88.81561
2014-05-01T00:331841172-62.3-88.91481
2014-05-01T00:331842172-62.1-88.91431
2014-05-01T00:331843071-61.9-88.91401
2014-05-01T00:331844171-61.9-88.71371
2014-05-01T00:331845171-62.0-88.71362
2014-05-01T00:331846271-62.1-88.61362
2014-05-01T00:331847471-62.2-88.61372
2014-05-01T00:331848571-62.1-88.61382
2014-05-01T00:331849471-62.1-88.61402
2014-05-01T00:331850471-62.2-88.71422
2014-05-01T00:331851570-62.3-88.81453
2014-05-01T00:331852670-62.5-88.91483
2014-05-01T00:331853770-62.4-89.01513
2014-05-01T00:331854970-62.3-88.91543
2014-05-01T00:331856070-62.2-88.91574
2014-05-01T00:331857070-62.1-88.81594
2014-05-01T00:331858170-62.2-88.91624
2014-05-01T00:331859170-62.3-88.91644
2014-05-01T00:331860169-62.4-88.81674
2014-05-01T00:331861269-62.5-88.81695
2014-05-01T00:331862369-62.5-88.81715
2014-05-01T00:331863369-62.5-88.71735
2014-05-01T00:331864469-62.6-88.81745
2014-05-01T00:331865569-62.8-88.81765
2014-05-01T00:331866769-62.9-88.91785
2014-05-01T00:331867769-63.0-89.11795
2014-05-01T00:341868669-63.1-89.31815
2014-05-01T00:341869668-63.2-89.51835
2014-05-01T00:341870668-63.3-89.81856
2014-05-01T00:341871568-63.5-89.91876
2014-05-01T00:341872668-63.5-90.21896
2014-05-01T00:341873768-63.5-90.31926
2014-05-01T00:341874768-63.5-90.31946
2014-05-01T00:341875868-63.4-90.31966
2014-05-01T00:341876968-63.3-90.31996
2014-05-01T00:341877967-63.2-90.12016
2014-05-01T00:341878967-63.0-89.92036
2014-05-01T00:341879967-63.0-89.72066
2014-05-01T00:341880967-63.0-89.52086
2014-05-01T00:341881967-63.2-89.42116
2014-05-01T00:341882967-63.3-89.42136
2014-05-01T00:341884067-63.5-89.52167
2014-05-01T00:341885067-63.6-89.72187
2014-05-01T00:341885967-63.4-89.72217
2014-05-01T00:341886966-63.2-89.72237
2014-05-01T00:341887966-63.3-89.72257
2014-05-01T00:341888966-63.3-89.82277
2014-05-01T00:341889866-63.2-89.82298
2014-05-01T00:341890666-63.2-89.72318
2014-05-01T00:341891666-63.2-89.62328
2014-05-01T00:341892766-63.2-89.62348
2014-05-01T00:341893666-63.3-89.62368
2014-05-01T00:341894666-63.2-89.72379
2014-05-01T00:341895566-63.2-89.52389
2014-05-01T00:341896565-63.3-89.62409
2014-05-01T00:341897665-63.3-89.62419
2014-05-01T00:351898665-63.4-89.62429
2014-05-01T00:351899565-63.5-89.62439
2014-05-01T00:351900765-63.5-89.72459
2014-05-01T00:351901665-63.4-89.72469
2014-05-01T00:351902465-63.4-89.92479
2014-05-01T00:351903465-63.5-90.12489
2014-05-01T00:351904365-63.3-90.22508
2014-05-01T00:351905265-63.3-90.32518
2014-05-01T00:351906364-63.2-90.32528
2014-05-01T00:351907464-62.9-90.32538
2014-05-01T00:351908364-62.8-90.32547
2014-05-01T00:351909364-62.8-90.12557
2014-05-01T00:351910364-62.7-90.02556
2014-05-01T00:351911364-62.5-89.92556
2014-05-01T00:351912264-62.4-89.82556
2014-05-01T00:351913364-62.4-89.72555
2014-05-01T00:351914264-62.4-89.62545
2014-05-01T00:351915164-62.4-89.42535
2014-05-01T00:351916163-62.3-89.42515
2014-05-01T00:351917063-62.3-89.42484
2014-05-01T00:351917963-62.3-89.52464
2014-05-01T00:351918963-62.3-89.52434
2014-05-01T00:351920063-62.3-89.52404
2014-05-01T00:351921063-62.1-89.62374
2014-05-01T00:351921963-61.9-89.62344
2014-05-01T00:351922863-61.8-89.62325
2014-05-01T00:351923663-61.8-89.52305
2014-05-01T00:351924663-61.5-89.52295
2014-05-01T00:351925762-61.2-89.32285
2014-05-01T00:351926662-61.1-89.02275
2014-05-01T00:361927662-61.1-88.92275
2014-05-01T00:361928662-60.9-88.62275
2014-05-01T00:361929862-60.9-88.62275
2014-05-01T00:361930862-60.9-88.62285
2014-05-01T00:361931762-60.9-88.52295
2014-05-01T00:361932862-60.8-88.52305
2014-05-01T00:361933762-60.8-88.52315
2014-05-01T00:361934662-60.7-88.62335
2014-05-01T00:361935661-60.6-88.62355
2014-05-01T00:361936761-60.6-88.62375
2014-05-01T00:361937761-60.5-88.62395
2014-05-01T00:361938761-60.5-88.52415
2014-05-01T00:361939761-60.5-88.42435
2014-05-01T00:361940661-60.6-88.42455
2014-05-01T00:361941561-60.6-88.42484
2014-05-01T00:361942461-60.7-88.42504
2014-05-01T00:361943361-60.7-88.32524
2014-05-01T00:361944361-60.7-88.32554
2014-05-01T00:361945360-60.7-88.32574
2014-05-01T00:361946460-60.7-88.32604
2014-05-01T00:361947460-60.8-88.42634
2014-05-01T00:361948460-60.8-88.52664
2014-05-01T00:361949460-60.8-88.62704
2014-05-01T00:361950460-60.9-88.72734
2014-05-01T00:361951660-60.9-88.82774
2014-05-01T00:361952560-61.0-88.92814
2014-05-01T00:361953560-61.0-89.12854
2014-05-01T00:361954560-60.9-89.12884
2014-05-01T00:361955759-60.9-89.12924
2014-05-01T00:361956759-60.8-89.02954
2014-05-01T00:371957559-60.7-88.92985
2014-05-01T00:371958459-60.7-88.83015
2014-05-01T00:371959559-60.8-88.83035
2014-05-01T00:371960759-60.9-88.73065
2014-05-01T00:371961659-60.9-88.73085
2014-05-01T00:371962659-61.0-88.83095
2014-05-01T00:371963659-61.0-89.03115
2014-05-01T00:371964659-61.1-89.13135
2014-05-01T00:371965659-61.2-89.33155
2014-05-01T00:371966758-61.1-89.43165
2014-05-01T00:371967658-61.1-89.53185
2014-05-01T00:371968658-61.0-89.43205
2014-05-01T00:371969658-61.0-89.43225
2014-05-01T00:371970758-61.0-89.43235
2014-05-01T00:371971758-61.0-89.43264
2014-05-01T00:371972858-60.8-89.43284
2014-05-01T00:371973858-60.8-89.53304
2014-05-01T00:371974958-60.9-89.73333
2014-05-01T00:371975858-60.8-89.83363
2014-05-01T00:371976858-60.8-90.03393
2014-05-01T00:371977957-60.8-90.13433
2014-05-01T00:371979057-60.6-90.23462
2014-05-01T00:371979957-60.3-90.03502
2014-05-01T00:371980857-60.2-89.83552
2014-05-01T00:371981957-60.3-89.53592
2014-05-01T00:371983057-60.3-89.232
2014-05-01T00:371984057-60.2-89.071
2014-05-01T00:371985157-60.1-88.9111
2014-05-01T00:371986257-60.1-88.7131
2014-05-01T00:371987157-60.1-88.5151
2014-05-01T00:381988056-60.1-88.4141
2014-05-01T00:381989056-60.2-88.5121
2014-05-01T00:381990056-60.3-88.671
2014-05-01T00:381991056-60.3-88.601
2014-05-01T00:381992056-60.2-88.63511
2014-05-01T00:381993256-60.0-88.33391
2014-05-01T00:381994156-60.0-88.43261
2014-05-01T00:381995056-60.0-88.43141
2014-05-01T00:381996156-60.1-88.23041
2014-05-01T00:381997156-60.1-88.12961
2014-05-01T00:381998056-60.2-88.22901
2014-05-01T00:381999155-60.1-88.32851
2014-05-01T00:382000255-60.1-88.42822
2014-05-01T00:382001155-60.1-88.62802
2014-05-01T00:382002155-60.1-88.72792
2014-05-01T00:382003255-60.0-88.82792
2014-05-01T00:382004355-60.0-88.82802
2014-05-01T00:382005255-60.1-89.02812
2014-05-01T00:382006355-60.0-89.12822
2014-05-01T00:382007455-59.9-89.02852
2014-05-01T00:382008455-59.8-89.02882
2014-05-01T00:382009155-59.8-88.92912
2014-05-01T00:382010155-59.8-88.82942
2014-05-01T00:382011254-59.9-88.72972
2014-05-01T00:382012154-59.9-88.63002
2014-05-01T00:382013254-59.8-88.63032
2014-05-01T00:382014354-59.8-88.73052
2014-05-01T00:382015254-59.7-88.63082
2014-05-01T00:382016054-59.4-88.43102
2014-05-01T00:382017154-59.4-88.53132
2014-05-01T00:392018254-59.5-88.73172
2014-05-01T00:392019254-59.6-89.03212
2014-05-01T00:392020354-59.7-89.33252
2014-05-01T00:392021354-59.4-89.23312
2014-05-01T00:392022353-59.0-89.03372
2014-05-01T00:392023353-59.0-88.83432
2014-05-01T00:392024153-58.9-88.73492
2014-05-01T00:392025353-58.8-88.43552
2014-05-01T00:392026453-58.9-88.33602
2014-05-01T00:392027553-58.9-88.242
2014-05-01T00:392028453-58.9-88.273
2014-05-01T00:392029553-59.0-88.293
2014-05-01T00:392030653-58.9-88.2113
2014-05-01T00:392031753-58.9-88.3134
2014-05-01T00:392032853-59.0-88.4144
2014-05-01T00:392033852-59.0-88.4154
2014-05-01T00:392034752-58.9-88.3164
2014-05-01T00:392035652-59.0-88.2165
2014-05-01T00:392036752-59.1-88.1175
2014-05-01T00:392037852-58.8-87.9175
2014-05-01T00:392039052-58.7-87.7185
2014-05-01T00:392040052-58.8-87.7185
2014-05-01T00:392040852-58.9-87.8195
2014-05-01T00:392041852-59.0-87.9195
2014-05-01T00:392042952-59.2-88.0205
2014-05-01T00:392044052-59.3-88.1205
2014-05-01T00:392045252-59.3-88.3215
2014-05-01T00:392046251-59.4-88.4225
2014-05-01T00:392047251-59.4-88.6235
2014-05-01T00:392048251-59.3-88.7245
2014-05-01T00:402049151-59.4-88.6255
2014-05-01T00:402050151-59.4-88.6275
2014-05-01T00:402051351-59.4-88.7285
2014-05-01T00:402052551-59.5-88.6295
2014-05-01T00:402053451-59.5-88.5315
2014-05-01T00:402054451-59.6-88.6325
2014-05-01T00:402055551-59.7-88.5345
2014-05-01T00:402056651-59.7-88.6355
2014-05-01T00:402057751-59.8-88.6365
2014-05-01T00:402058850-59.8-88.8375
2014-05-01T00:402059850-59.9-88.8385
2014-05-01T00:402060850-60.0-89.0395
2014-05-01T00:402061950-60.0-89.1405
2014-05-01T00:402062850-60.0-89.1415
2014-05-01T00:402063950-60.1-89.2415
2014-05-01T00:402064950-60.1-89.2425
2014-05-01T00:402066050-60.1-89.3425
2014-05-01T00:402067050-60.0-89.3425
2014-05-01T00:402068150-60.1-89.3435
2014-05-01T00:402069250-60.1-89.2435
2014-05-01T00:402070250-60.1-89.3435
2014-05-01T00:402071249-60.2-89.1434
2014-05-01T00:402072349-60.2-89.2434
2014-05-01T00:402073349-60.2-89.3434
2014-05-01T00:402074349-60.2-89.3434
2014-05-01T00:402075349-60.1-89.5434
2014-05-01T00:402076549-60.0-89.5434
2014-05-01T00:402077449-59.8-89.4444
2014-05-01T00:402078449-59.8-89.4454
2014-05-01T00:402079549-59.8-89.3464
2014-05-01T00:412080649-59.7-89.2484
2014-05-01T00:412081649-59.7-89.1494
2014-05-01T00:412082549-59.6-88.9514
2014-05-01T00:412083448-59.5-88.8544
2014-05-01T00:412084348-59.5-88.7574
2014-05-01T00:412085348-59.5-88.7604
2014-05-01T00:412086248-59.5-88.6634
2014-05-01T00:412087248-59.7-88.7664
2014-05-01T00:412088348-59.7-88.7704
2014-05-01T00:412089548-59.6-88.7734
2014-05-01T00:412090648-59.4-88.6774
2014-05-01T00:412091748-59.3-88.5814
2014-05-01T00:412092848-59.4-88.5844
2014-05-01T00:412093848-59.4-88.5884
2014-05-01T00:412094748-59.4-88.5924
2014-05-01T00:412095648-59.5-88.5964
2014-05-01T00:412096747-59.6-88.5994
2014-05-01T00:412097847-59.7-88.61033
2014-05-01T00:412098947-59.7-88.61063
2014-05-01T00:412099947-59.7-88.81093
2014-05-01T00:412100947-59.7-88.81113
2014-05-01T00:412102047-59.8-89.11133
2014-05-01T00:412103147-59.8-89.31143
2014-05-01T00:412104247-59.9-89.51153
2014-05-01T00:412105147-60.0-89.81153
2014-05-01T00:412106347-59.7-89.81153
2014-05-01T00:412107447-59.2-89.81133
2014-05-01T00:412108347-58.9-89.61113
2014-05-01T00:412109447-58.7-89.51093
2014-05-01T00:412110546-58.6-89.21053
2014-05-01T00:422111446-58.5-88.91013
2014-05-01T00:422112446-58.5-88.7972
2014-05-01T00:422113446-58.4-88.5923
2014-05-01T00:422114646-58.2-88.3883
2014-05-01T00:422115546-58.2-88.2853
2014-05-01T00:422116546-58.2-88.2823
2014-05-01T00:422117746-58.1-88.0793
2014-05-01T00:422118746-58.1-88.0783
2014-05-01T00:422119746-58.1-88.1773
2014-05-01T00:422120846-58.0-88.0774
2014-05-01T00:422121846-57.9-87.8774
2014-05-01T00:422122946-57.8-87.7774
2014-05-01T00:422124245-57.8-87.6784
2014-05-01T00:422125245-57.8-87.6785
2014-05-01T00:422126145-57.9-87.5795
2014-05-01T00:422127145-57.9-87.7795
2014-05-01T00:422128245-58.0-87.8805
2014-05-01T00:422129445-58.0-87.8805
2014-05-01T00:422130445-57.9-87.7815
2014-05-01T00:422131345-57.8-87.7815
2014-05-01T00:422132345-57.8-87.7825
2014-05-01T00:422133245-57.9-87.7825
2014-05-01T00:422134445-57.9-87.7835
2014-05-01T00:422135645-57.9-87.7835
2014-05-01T00:422136745-58.0-87.7845
2014-05-01T00:422137644-58.0-87.7855
2014-05-01T00:422138744-58.0-87.7865
2014-05-01T00:422139644-58.0-87.8885
2014-05-01T00:422140744-58.1-87.8895
2014-05-01T00:422141944-58.1-87.8905
2014-05-01T00:432142844-58.2-87.9925
2014-05-01T00:432143944-58.3-87.9935
2014-05-01T00:432145044-58.2-87.8945
2014-05-01T00:432146044-58.2-87.9955
2014-05-01T00:432147144-58.3-87.9965
2014-05-01T00:432148344-58.4-88.0975
2014-05-01T00:432149444-58.4-88.0975
2014-05-01T00:432150544-58.4-88.0975
2014-05-01T00:432151643-58.3-88.1975
2014-05-01T00:432152843-58.3-88.1975
2014-05-01T00:432154043-58.3-88.2975
2014-05-01T00:432154943-58.3-88.2975
2014-05-01T00:432155843-58.3-88.3975
2014-05-01T00:432156843-58.3-88.3975
2014-05-01T00:432158043-58.2-88.2975
2014-05-01T00:432159243-58.2-88.1985
2014-05-01T00:432160243-58.3-88.0995
2014-05-01T00:432161143-58.3-88.1995
2014-05-01T00:432162143-58.3-88.11005
2014-05-01T00:432163443-58.3-88.01025
2014-05-01T00:432164643-58.4-88.01035
2014-05-01T00:432165843-58.4-88.11055
2014-05-01T00:432166742-58.5-88.11065
2014-05-01T00:432167742-58.5-88.11085
2014-05-01T00:432168842-58.5-88.11105
2014-05-01T00:432169942-58.6-88.11125
2014-05-01T00:432170942-58.6-88.21145
2014-05-01T00:432172142-58.7-88.31165
2014-05-01T00:432173242-58.7-88.31185
2014-05-01T00:432174142-58.7-88.31205
2014-05-01T00:442175142-58.7-88.41215
2014-05-01T00:442176342-58.6-88.31235
2014-05-01T00:442177342-58.6-88.31245
2014-05-01T00:442178642-58.6-88.41265
2014-05-01T00:442179642-58.6-88.31275
2014-05-01T00:442180442-58.6-88.31275
2014-05-01T00:442181341-58.6-88.31275
2014-05-01T00:442182341-58.6-88.21274
2014-05-01T00:442183241-58.6-88.21274
2014-05-01T00:442184341-58.6-88.31264
2014-05-01T00:442185641-58.7-88.41244
2014-05-01T00:442187041-58.8-88.61234
2014-05-01T00:442188241-58.8-88.71213
2014-05-01T00:442189041-58.6-88.71183
2014-05-01T00:442189941-58.5-88.71163
2014-05-01T00:442191041-58.4-88.71133
2014-05-01T00:442192041-58.4-88.71092
2014-05-01T00:442193041-58.4-88.61062
2014-05-01T00:442194141-58.4-88.51022
2014-05-01T00:442195141-58.4-88.5982
2014-05-01T00:442196141-58.5-88.4942
2014-05-01T00:442197240-58.5-88.5902
2014-05-01T00:442198240-58.5-88.3862
2014-05-01T00:442199440-58.3-88.3832
2014-05-01T00:442200540-58.2-88.3813
2014-05-01T00:442201640-58.2-88.3783
2014-05-01T00:442202440-58.2-88.3763
2014-05-01T00:442203540-58.2-88.2753
2014-05-01T00:442204740-58.1-88.1734
2014-05-01T00:442205740-58.0-87.9724
2014-05-01T00:452206640-58.0-87.9714
2014-05-01T00:452207740-58.1-87.9714
2014-05-01T00:452208840-58.1-87.8704
2014-05-01T00:452209940-58.2-87.8705
2014-05-01T00:452210940-58.2-87.8705
2014-05-01T00:452211940-58.1-87.8715
2014-05-01T00:452212939-58.1-87.8715
2014-05-01T00:452213939-58.1-87.9725
2014-05-01T00:452214939-58.2-87.9725
2014-05-01T00:452215939-58.3-88.0735
2014-05-01T00:452217039-58.4-88.0745
2014-05-01T00:452218139-58.3-88.1765
2014-05-01T00:452218939-58.2-88.1775
2014-05-01T00:452219939-58.2-88.0795
2014-05-01T00:452221039-58.3-88.0815
2014-05-01T00:452221939-58.3-88.0835
2014-05-01T00:452223039-58.3-88.0865
2014-05-01T00:452224039-58.3-88.0885
2014-05-01T00:452225039-58.3-88.0905
2014-05-01T00:452226039-58.4-87.9935
2014-05-01T00:452226939-58.5-88.0955
2014-05-01T00:452227939-58.5-88.1975
2014-05-01T00:452228938-58.5-88.2995
2014-05-01T00:452230038-58.5-88.31005
2014-05-01T00:452230938-58.4-88.31015
2014-05-01T00:452232038-58.4-88.31025
2014-05-01T00:452233238-58.4-88.31034
2014-05-01T00:452234338-58.4-88.41044
2014-05-01T00:452235238-58.4-88.41044
2014-05-01T00:452236138-58.3-88.41044
2014-05-01T00:462237138-58.1-88.31044
2014-05-01T00:462238238-58.1-88.21044
2014-05-01T00:462239238-58.1-88.21044
2014-05-01T00:462240138-58.1-88.11034
2014-05-01T00:462241138-58.1-87.91033
2014-05-01T00:462242038-58.1-87.91023
2014-05-01T00:462243038-58.0-87.91023
2014-05-01T00:462244138-58.1-87.91013
2014-05-01T00:462245137-58.2-88.01003
2014-05-01T00:462246237-58.3-88.1992
2014-05-01T00:462247137-58.3-88.2972
2014-05-01T00:462248137-58.0-88.3952
2014-05-01T00:462249237-58.0-88.2922
2014-05-01T00:462250437-58.0-88.3892
2014-05-01T00:462251537-57.9-88.3862
2014-05-01T00:462252537-57.8-88.4822
2014-05-01T00:462253437-57.8-88.5782
2014-05-01T00:462254237-57.6-88.4742
2014-05-01T00:462255137-57.5-88.3712
2014-05-01T00:462256237-57.4-88.1682
2014-05-01T00:462257337-57.2-88.0652
2014-05-01T00:462258437-57.1-87.8632
2014-05-01T00:462259437-57.1-87.7613
2014-05-01T00:462260437-57.0-87.6603
2014-05-01T00:462261537-57.0-87.6593
2014-05-01T00:462262536-57.0-87.6583
2014-05-01T00:462263436-56.8-87.4573
2014-05-01T00:462264436-56.7-87.3563
2014-05-01T00:462265536-56.8-87.2553
2014-05-01T00:462266436-56.9-87.2554
2014-05-01T00:472267236-57.0-87.2544
2014-05-01T00:472268336-56.9-87.3534
2014-05-01T00:472269636-56.9-87.2534
2014-05-01T00:472270636-56.9-87.2534
2014-05-01T00:472271736-56.8-87.2524
2014-05-01T00:472272736-56.9-87.2524
2014-05-01T00:472273636-56.9-87.2515
2014-05-01T00:472274636-56.9-87.3515
2014-05-01T00:472275736-56.9-87.3515
2014-05-01T00:472276836-56.9-87.3515
2014-05-01T00:472277936-56.9-87.3505
2014-05-01T00:472278936-56.8-87.2505
2014-05-01T00:472279935-56.8-87.2504
2014-05-01T00:472281035-56.9-87.1494
2014-05-01T00:472282235-57.0-87.0484
2014-05-01T00:472283335-57.0-87.0484
2014-05-01T00:472284235-57.1-87.0474
2014-05-01T00:472285135-57.1-87.1464
2014-05-01T00:472286335-57.2-87.1454
2014-05-01T00:472287335-57.3-87.2433
2014-05-01T00:472288435-57.4-87.2423
2014-05-01T00:472289635-57.5-87.4403
2014-05-01T00:472290735-57.6-87.3373
2014-05-01T00:472292035-57.7-87.4353
2014-05-01T00:472293235-57.7-87.6323
2014-05-01T00:472294335-57.6-87.7303
2014-05-01T00:472295235-57.6-87.9273
2014-05-01T00:472296235-57.7-87.9253
2014-05-01T00:472297335-57.7-87.8233
2014-05-01T00:472298434-57.6-87.9223
2014-05-01T00:482299634-57.6-88.0203
2014-05-01T00:482300734-57.6-87.9203
2014-05-01T00:482301734-57.5-87.8193
2014-05-01T00:482302734-57.4-87.8184
2014-05-01T00:482303734-57.3-87.8184
2014-05-01T00:482304934-57.4-87.8184
2014-05-01T00:482306334-57.5-87.7184
2014-05-01T00:482307334-57.4-87.6184
2014-05-01T00:482308334-57.3-87.5184
2014-05-01T00:482309334-57.3-87.5184
2014-05-01T00:482310434-57.4-87.4184
2014-05-01T00:482311534-57.5-87.4174
2014-05-01T00:482312534-57.4-87.4164
2014-05-01T00:482313634-57.5-87.5164
2014-05-01T00:482314734-57.5-87.5144
2014-05-01T00:482315934-57.6-87.5134
2014-05-01T00:482317233-57.5-87.6124
2014-05-01T00:482318233-57.5-87.8104
2014-05-01T00:482319233-57.5-87.894
2014-05-01T00:482320433-57.5-87.874
2014-05-01T00:482321633-57.5-87.864
2014-05-01T00:482322633-57.5-87.854
2014-05-01T00:482323633-57.5-87.744
2014-05-01T00:482324733-57.5-87.745
2014-05-01T00:482325833-57.5-87.745
2014-05-01T00:482326733-57.5-87.755
2014-05-01T00:482327733-57.4-87.765
2014-05-01T00:482328833-57.5-87.775
2014-05-01T00:482330133-57.5-87.895
2014-05-01T00:482331333-57.6-88.0115
2014-05-01T00:492332433-57.6-88.1136
2014-05-01T00:492333733-57.4-88.2166
2014-05-01T00:492334833-57.3-88.2196
2014-05-01T00:492335832-57.2-88.1216
2014-05-01T00:492337032-57.1-88.0246
2014-05-01T00:492338032-57.1-87.9277
2014-05-01T00:492339032-57.1-87.8297
2014-05-01T00:492340232-57.0-87.7327
2014-05-01T00:492341232-56.9-87.6357
2014-05-01T00:492342232-57.0-87.6378
2014-05-01T00:492343532-56.9-87.6398
2014-05-01T00:492344632-56.9-87.6428
2014-05-01T00:492345532-56.8-87.6448
2014-05-01T00:492346432-56.7-87.7469
2014-05-01T00:492347432-56.7-87.6489
2014-05-01T00:492348532-56.7-87.3499
2014-05-01T00:492349632-56.6-87.2519
2014-05-01T00:492350632-56.6-87.1529
2014-05-01T00:492351732-56.7-86.95410
2014-05-01T00:492352832-56.7-86.95510
2014-05-01T00:492353932-56.8-87.15610
2014-05-01T00:492355032-56.8-87.35710
2014-05-01T00:492356131-56.6-87.35810
2014-05-01T00:492357331-56.5-87.25910
2014-05-01T00:492358231-56.5-87.26010
2014-05-01T00:492359231-56.6-87.26110
2014-05-01T00:492360231-56.7-87.26110
2014-05-01T00:492361331-56.4-87.36210
2014-05-01T00:492362431-56.2-87.46210
2014-05-01T05:303159823.7-3.82912
2014-05-01T05:303239814.3-3.03134
2014-05-01T05:303369806.4-2.23174
2014-05-01T05:303489787.3-2.53175
2014-05-01T05:303599778.0-2.73186
2014-05-01T05:303709768.8-2.73197
2014-05-01T05:303819749.5-2.73217
2014-05-01T05:3039397310.2-2.73228
2014-05-01T05:3040197210.8-2.73249
2014-05-01T05:3040897111.0-2.93259
2014-05-01T05:3041697011.1-3.13269
2014-05-01T05:3042596911.0-3.332810
2014-05-01T05:3043696811.0-3.432910
2014-05-01T05:3044996610.9-3.633010
2014-05-01T05:3046396510.8-3.733210
2014-05-01T05:3047496310.7-3.733310
2014-05-01T05:3048496210.7-3.833410
2014-05-01T05:3049796110.6-4.033511
2014-05-01T05:3051095910.4-4.033611
2014-05-01T05:3052295810.3-4.133711
2014-05-01T05:3053295710.2-4.133811
2014-05-01T05:3054195610.1-4.233811
2014-05-01T05:3055095510.1-4.333811
2014-05-01T05:3056195310.0-4.333811
2014-05-01T05:305729529.9-4.333811
2014-05-01T05:305839519.8-4.433812
2014-05-01T05:305919509.7-4.433812
2014-05-01T05:305999499.6-4.533812
2014-05-01T05:306079489.5-4.533712
2014-05-01T05:306169479.4-4.533712
2014-05-01T05:316259469.4-4.533712
2014-05-01T05:316339459.3-4.633612
2014-05-01T05:316459449.2-4.633612
2014-05-01T05:316569439.1-4.733612
2014-05-01T05:316669419.0-4.733612
2014-05-01T05:316779408.9-4.833612
2014-05-01T05:316879398.8-4.833712
2014-05-01T05:316989388.7-4.833712
2014-05-01T05:317079378.6-4.833712
2014-05-01T05:317179368.5-4.933812
2014-05-01T05:317289348.4-4.933812
2014-05-01T05:317399338.3-4.933812
2014-05-01T05:317509328.2-5.033912
2014-05-01T05:317619318.1-5.033911
2014-05-01T05:317719298.0-5.133911
2014-05-01T05:317819287.9-5.234011
2014-05-01T05:317929277.8-5.334011
2014-05-01T05:318019267.7-5.334011
2014-05-01T05:318119257.7-5.434011
2014-05-01T05:318219247.6-5.434011
2014-05-01T05:318319237.5-5.534011
2014-05-01T05:318419227.4-5.634011
2014-05-01T05:318529207.3-5.734011
2014-05-01T05:318619197.2-5.834011
2014-05-01T05:318719187.2-5.834011
2014-05-01T05:318829177.1-5.934011
2014-05-01T05:318939167.0-6.134012
2014-05-01T05:319049156.8-6.134012
2014-05-01T05:319169136.7-6.234012
2014-05-01T05:319279126.6-6.334012
2014-05-01T05:329389116.5-6.433912
2014-05-01T05:329499106.4-6.533912
2014-05-01T05:329609086.3-6.533912
2014-05-01T05:329699076.3-6.733912
2014-05-01T05:329799066.2-6.933912
2014-05-01T05:329899056.1-7.233912
2014-05-01T05:329989046.1-7.233812
2014-05-01T05:3210089036.0-7.233812
2014-05-01T05:3210189025.9-7.233812
2014-05-01T05:3210289015.8-7.233813
2014-05-01T05:3210389005.7-7.333813
2014-05-01T05:3210488995.6-7.333813
2014-05-01T05:3210588985.5-7.233813
2014-05-01T05:3210678975.5-7.133713
2014-05-01T05:3210768965.4-7.033713
2014-05-01T05:3210868945.3-6.933713
2014-05-01T05:3210968935.3-6.933713
2014-05-01T05:3211058925.2-6.933613
2014-05-01T05:3211158915.1-6.933613
2014-05-01T05:3211258905.0-6.933614
2014-05-01T05:3211358894.9-6.833514
2014-05-01T05:3211468884.8-6.833514
2014-05-01T05:3211628864.7-6.933414
2014-05-01T05:3211798844.6-7.133414
2014-05-01T05:3211948834.5-7.233414
2014-05-01T05:3212058814.4-7.233314
2014-05-01T05:3212168804.3-7.333315
2014-05-01T05:3212288794.3-7.433315
2014-05-01T05:3212388784.2-7.533315
2014-05-01T05:3212518774.1-7.633315
2014-05-01T05:3312638754.0-7.833315
2014-05-01T05:3312738743.9-7.833315
2014-05-01T05:3312848733.8-7.933315
2014-05-01T05:3312968723.7-7.933315
2014-05-01T05:3313098703.6-7.933315
2014-05-01T05:3313218693.4-8.033315
2014-05-01T05:3313328683.3-8.033415
2014-05-01T05:3313438673.2-8.033415
2014-05-01T05:3313548663.1-8.133415
2014-05-01T05:3313648643.0-8.133515
2014-05-01T05:3313758632.9-8.133515
2014-05-01T05:3313858622.8-8.133515
2014-05-01T05:3313958612.7-8.133615
2014-05-01T05:3314068602.6-8.233615
2014-05-01T05:3314158592.5-8.233615
2014-05-01T05:3314248582.5-8.233615
2014-05-01T05:3314328572.4-8.233615
2014-05-01T05:3314428562.3-8.333615
2014-05-01T05:3314538552.2-8.333615
2014-05-01T05:3314648542.1-8.333615
2014-05-01T05:3314738532.0-8.333515
2014-05-01T05:3314828521.9-8.433515
2014-05-01T05:3314938511.8-8.433515
2014-05-01T05:3315048501.7-8.433415
2014-05-01T05:3315148481.6-8.533415
2014-05-01T05:3315238481.6-8.533415
2014-05-01T05:3315328471.5-8.633315
2014-05-01T05:3315428461.4-8.633315
2014-05-01T05:3315538441.3-8.733215
2014-05-01T05:3315638431.2-8.833215
2014-05-01T05:3415738421.1-8.833216
2014-05-01T05:3415838411.1-8.833116
2014-05-01T05:3415928401.0-8.933116
2014-05-01T05:3416038390.9-8.933016
2014-05-01T05:3416148380.9-8.933016
2014-05-01T05:3416258370.8-8.932916
2014-05-01T05:3416358360.7-8.932916
2014-05-01T05:3416468350.6-8.932816
2014-05-01T05:3416568340.5-8.932716
2014-05-01T05:3416668330.4-8.932716
2014-05-01T05:3416778310.3-8.932615
2014-05-01T05:3416888300.2-8.932515
2014-05-01T05:3416998290.1-8.932515
2014-05-01T05:3417098280.0-8.932415
2014-05-01T05:341718827-0.1-8.932415
2014-05-01T05:341729826-0.2-8.932415
2014-05-01T05:341739825-0.2-8.932415
2014-05-01T05:341750824-0.3-8.932315
2014-05-01T05:341760823-0.4-8.932315
2014-05-01T05:341771822-0.5-9.032315
2014-05-01T05:341782821-0.6-9.032315
2014-05-01T05:341792820-0.8-9.032315
2014-05-01T05:341803818-0.9-9.132315
2014-05-01T05:341815817-0.9-9.132315
2014-05-01T05:341826816-1.1-9.232315
2014-05-01T05:341836815-1.2-9.232215
2014-05-01T05:341847814-1.3-9.232215
2014-05-01T05:341858813-1.4-9.232215
2014-05-01T05:341869812-1.5-9.232115
2014-05-01T05:341880811-1.6-9.232115
2014-05-01T05:351891809-1.7-9.232115
2014-05-01T05:351904808-1.8-9.132015
2014-05-01T05:351915807-1.9-9.032015
2014-05-01T05:351926806-2.0-8.932015
2014-05-01T05:351937805-2.0-8.832015
2014-05-01T05:351946804-2.1-8.831915
2014-05-01T05:351956803-2.2-8.831915
2014-05-01T05:351968802-2.3-8.631915
2014-05-01T05:351982800-2.5-8.531915
2014-05-01T05:351993799-2.6-8.431915
2014-05-01T05:352001798-2.6-8.431915
2014-05-01T05:352009797-2.7-8.431916
2014-05-01T05:352018797-2.8-8.431916
2014-05-01T05:352028796-2.9-8.531916
2014-05-01T05:352039795-3.0-8.531916
2014-05-01T05:352048794-3.1-8.531916
2014-05-01T05:352058793-3.1-8.531916
2014-05-01T05:352068792-3.2-8.531916
2014-05-01T05:352078791-3.3-8.531917
2014-05-01T05:352087790-3.3-8.531917
2014-05-01T05:352098789-3.4-8.531917
2014-05-01T05:352109788-3.4-8.631917
2014-05-01T05:352120786-3.4-8.731917
2014-05-01T05:352132785-3.5-8.931917
2014-05-01T05:352143784-3.5-8.931918
2014-05-01T05:352153783-3.6-9.031918
2014-05-01T05:352164782-3.7-9.231818
2014-05-01T05:352173781-3.8-9.231818
2014-05-01T05:352181780-3.9-9.231818
2014-05-01T05:352190780-4.0-9.231818
2014-05-01T05:362199779-4.1-9.331818
2014-05-01T05:362209778-4.2-9.331818
2014-05-01T05:362219777-4.3-9.431818
2014-05-01T05:362228776-4.3-9.431818
2014-05-01T05:362238775-4.4-9.431818
2014-05-01T05:362247774-4.5-9.531818
2014-05-01T05:362256773-4.6-9.631818
2014-05-01T05:362266772-4.7-9.631818
2014-05-01T05:362278771-4.8-9.831818
2014-05-01T05:362288770-4.9-9.931818
2014-05-01T05:362298769-5.0-9.931918
2014-05-01T05:362308768-5.1-9.931918
2014-05-01T05:362317767-5.2-9.931919
2014-05-01T05:362326766-5.2-9.931919
2014-05-01T05:362337765-5.3-9.831919
2014-05-01T05:362347764-5.4-9.831819
2014-05-01T05:362357763-5.5-9.831819
2014-05-01T05:362368762-5.6-9.831819
2014-05-01T05:362382761-5.7-9.831819
2014-05-01T05:362396759-5.9-9.931819
2014-05-01T05:362407758-5.9-9.931819
2014-05-01T05:362416757-6.0-9.931819
2014-05-01T05:362426756-6.1-9.931819
2014-05-01T05:362435756-6.2-10.031819
2014-05-01T05:362445755-6.3-10.031819
2014-05-01T05:362454754-6.4-10.031819
2014-05-01T05:362462753-6.4-10.131819
2014-05-01T05:362469752-6.5-10.131819
2014-05-01T05:362478751-6.6-10.231819
2014-05-01T05:362488750-6.7-10.331819
2014-05-01T05:372499749-6.7-10.431920
2014-05-01T05:372511748-6.8-10.531920
2014-05-01T05:372521747-6.8-10.631920
2014-05-01T05:372531746-6.9-10.632020
2014-05-01T05:372543745-7.0-10.732021
2014-05-01T05:372553744-7.0-10.832121
2014-05-01T05:372565743-7.1-10.832121
2014-05-01T05:372576742-7.1-10.932121
2014-05-01T05:372585741-7.2-10.932222
2014-05-01T05:372594740-7.2-10.932222
2014-05-01T05:372605739-7.3-10.932222
2014-05-01T05:372617738-7.3-10.832222
2014-05-01T05:372627737-7.3-10.832223
2014-05-01T05:372634737-7.3-10.832123
2014-05-01T05:372641736-7.1-11.032123
2014-05-01T05:372649735-7.0-11.132123
2014-05-01T05:372657734-6.9-11.332023
2014-05-01T05:372666734-6.8-11.432023
2014-05-01T05:372677733-6.8-11.731923
2014-05-01T05:372687732-6.8-11.931823
2014-05-01T05:372695731-6.8-12.031823
2014-05-01T05:372704730-6.8-12.131723
2014-05-01T05:372714729-6.8-12.331623
2014-05-01T05:372724728-6.8-12.431623
2014-05-01T05:372735727-6.9-12.631523
2014-05-01T05:372745726-6.9-12.731523
2014-05-01T05:372755725-7.0-12.831423
2014-05-01T05:372766724-7.1-12.931422
2014-05-01T05:372777723-7.1-12.931422
2014-05-01T05:372788722-7.1-13.031322
2014-05-01T05:382796721-7.1-13.031321
2014-05-01T05:382804721-7.2-13.031321
2014-05-01T05:382812720-7.2-13.031321
2014-05-01T05:382819719-7.2-13.031320
2014-05-01T05:382828718-7.2-13.031320
2014-05-01T05:382839717-7.3-13.131420
2014-05-01T05:382852716-7.3-13.031419
2014-05-01T05:382865715-7.2-13.031419
2014-05-01T05:382877714-7.1-12.931419
2014-05-01T05:382888713-7.0-12.831418
2014-05-01T05:382900712-7.0-12.831518
2014-05-01T05:382912711-6.9-12.731518
2014-05-01T05:382924710-6.8-12.731518
2014-05-01T05:382933709-6.7-12.731618
2014-05-01T05:382944708-6.7-12.931618
2014-05-01T05:382955707-6.7-13.031718
2014-05-01T05:382965706-6.7-13.131718
2014-05-01T05:382977705-6.8-13.331718
2014-05-01T05:382988704-6.8-13.531818
2014-05-01T05:382999703-6.7-13.731818
2014-05-01T05:383008702-6.7-13.831818
2014-05-01T05:383018701-6.8-13.931818
2014-05-01T05:383029700-6.8-14.031918
2014-05-01T05:383039699-6.9-14.131918
2014-05-01T05:383049698-7.0-14.131919
2014-05-01T05:383057698-7.1-14.231919
2014-05-01T05:383064697-7.1-14.331919
2014-05-01T05:383071696-7.0-14.431819
2014-05-01T05:383079696-7.1-14.531819
2014-05-01T05:383090695-7.1-14.631819
2014-05-01T05:393100694-7.1-14.731819
2014-05-01T05:393109693-7.2-14.831819
2014-05-01T05:393120692-7.2-14.931820
2014-05-01T05:393131691-7.2-15.031820
2014-05-01T05:393142690-7.3-15.031820
2014-05-01T05:393150689-7.3-15.131820
2014-05-01T05:393157689-7.3-15.131820
2014-05-01T05:393164688-7.3-15.131820
2014-05-01T05:393172687-7.3-15.131720
2014-05-01T05:393181687-7.4-15.231720
2014-05-01T05:393190686-7.4-15.231720
2014-05-01T05:393199685-7.5-15.231720
2014-05-01T05:393208684-7.6-15.331720
2014-05-01T05:393219683-7.6-15.331720
2014-05-01T05:393231682-7.7-15.331720
2014-05-01T05:393241681-7.7-15.331720
2014-05-01T05:393250681-7.8-15.331721
2014-05-01T05:393260680-7.8-15.331721
2014-05-01T05:393271679-7.9-15.331721
2014-05-01T05:393283678-7.9-15.331721
2014-05-01T05:393294677-7.8-15.331721
2014-05-01T05:393305676-7.7-15.431721
2014-05-01T05:393316675-7.7-15.631721
2014-05-01T05:393328674-7.6-16.031621
2014-05-01T05:393340673-7.6-16.431622
2014-05-01T05:393352672-7.6-16.731622
2014-05-01T05:393363671-7.6-17.031622
2014-05-01T05:393375670-7.7-17.331622
2014-05-01T05:393387669-7.8-17.431522
2014-05-01T05:393398668-7.9-17.531522
2014-05-01T05:403410667-8.0-17.731522
2014-05-01T05:403422666-8.1-17.731422
2014-05-01T05:403433665-8.2-17.731422
2014-05-01T05:403444664-8.3-17.731422
2014-05-01T05:403456663-8.4-17.831422
2014-05-01T05:403467662-8.5-17.831322
2014-05-01T05:403478661-8.6-17.931322
2014-05-01T05:403490660-8.7-18.031322
2014-05-01T05:403501659-8.8-18.131322
2014-05-01T05:403510658-8.9-18.331322
2014-05-01T05:403518658-9.0-18.431222
2014-05-01T05:403526657-9.0-18.431221
2014-05-01T05:403534656-9.1-18.531221
2014-05-01T05:403542655-9.2-18.631221
2014-05-01T05:403551655-9.3-18.731221
2014-05-01T05:403560654-9.4-18.931121
2014-05-01T05:403568653-9.4-19.331122
2014-05-01T05:403578652-9.5-20.631122
2014-05-01T05:403589651-9.4-24.731122
2014-05-01T05:403602650-9.3-35.731022
2014-05-01T05:403613649-9.2-38.831022
2014-05-01T05:403625648-9.1-37.231022
2014-05-01T05:403636648-9.1-35.331022
2014-05-01T05:403645647-9.1-34.530922
2014-05-01T05:403654646-9.1-34.530922
2014-05-01T05:403664645-9.1-34.130922
2014-05-01T05:403673644-9.2-32.930922
2014-05-01T05:403683644-9.3-31.730922
2014-05-01T05:403692643-9.4-31.030922
2014-05-01T05:403701642-9.4-29.830923
2014-05-01T05:413712641-9.5-27.530923
2014-05-01T05:413723640-9.6-26.030823
2014-05-01T05:413733640-9.6-24.830823
2014-05-01T05:413743639-9.7-23.730823
2014-05-01T05:413753638-9.7-23.630823
2014-05-01T05:413764637-9.8-24.130724
2014-05-01T05:413774636-9.8-24.430724
2014-05-01T05:413784635-9.9-24.630724
2014-05-01T05:413794634-10.0-24.730724
2014-05-01T05:413805634-10.1-24.830724
2014-05-01T05:413815633-10.2-24.830724
2014-05-01T05:413824632-10.3-24.930724
2014-05-01T05:413832631-10.3-25.030724
2014-05-01T05:413841631-10.4-25.130724
2014-05-01T05:413849630-10.5-25.230723
2014-05-01T05:413857629-10.6-25.330723
2014-05-01T05:413866629-10.6-25.230723
2014-05-01T05:413875628-10.7-24.830723
2014-05-01T05:413885627-10.8-24.230723
2014-05-01T05:413895626-10.9-24.030723
2014-05-01T05:413907625-10.9-24.030723
2014-05-01T05:413923624-11.1-24.130722
2014-05-01T05:413938623-11.2-24.330722
2014-05-01T05:413949622-11.3-24.330722
2014-05-01T05:413960621-11.4-24.230722
2014-05-01T05:413970620-11.5-24.230722
2014-05-01T05:413979619-11.6-24.130722
2014-05-01T05:413989619-11.7-24.030722
2014-05-01T05:413999618-11.8-24.030722
2014-05-01T05:414011617-11.9-23.930722
2014-05-01T05:424022616-12.0-23.830822
2014-05-01T05:424033615-12.1-23.530821
2014-05-01T05:424045614-12.2-23.330821
2014-05-01T05:424055613-12.3-23.230921
2014-05-01T05:424066612-12.4-23.130921
2014-05-01T05:424079611-12.5-22.930921
2014-05-01T05:424093610-12.6-22.630921
2014-05-01T05:424105609-12.8-22.531021
2014-05-01T05:424114609-12.8-22.431021
2014-05-01T05:424124608-12.9-22.431021
2014-05-01T05:424133607-13.0-22.430921
2014-05-01T05:424141606-13.0-22.330921
2014-05-01T05:424148606-13.1-22.230921
2014-05-01T05:424158605-13.2-22.130921
2014-05-01T05:424169604-13.3-22.030821
2014-05-01T05:424180603-13.3-22.030821
2014-05-01T05:424191602-13.4-22.030821
2014-05-01T05:424203601-13.4-21.630721
2014-05-01T05:424214601-13.5-21.130720
2014-05-01T05:424224600-13.5-21.030620
2014-05-01T05:424235599-13.6-21.030620
2014-05-01T05:424247598-13.6-20.930520
2014-05-01T05:424260597-13.7-20.630520
2014-05-01T05:424271596-13.8-20.430420
2014-05-01T05:424280595-13.8-20.430319
2014-05-01T05:424291594-13.8-20.630319
2014-05-01T05:424301594-13.8-20.730219
2014-05-01T05:424308593-13.9-20.730219
2014-05-01T05:424316593-13.9-20.830119
2014-05-01T05:424325592-14.0-20.930119
2014-05-01T05:434334591-14.0-21.030119
2014-05-01T05:434343590-14.0-21.030119
2014-05-01T05:434351590-14.1-21.030119
2014-05-01T05:434359589-14.1-21.030119
2014-05-01T05:434368588-14.2-21.030119
2014-05-01T05:434378588-14.3-21.030219
2014-05-01T05:434389587-14.4-21.030219
2014-05-01T05:434401586-14.5-21.030219
2014-05-01T05:434413585-14.6-21.030219
2014-05-01T05:434425584-14.7-21.130319
2014-05-01T05:434435583-14.8-21.030319
2014-05-01T05:434444583-14.9-21.030319
2014-05-01T05:434452582-14.9-21.030320
2014-05-01T05:434461581-15.0-21.130220
2014-05-01T05:434468581-15.0-21.130220
2014-05-01T05:434476580-15.1-21.130220
2014-05-01T05:434485579-15.1-21.230121
2014-05-01T05:434495579-15.2-21.430021
2014-05-01T05:434505578-15.2-21.630021
2014-05-01T05:434513577-15.2-21.729921
2014-05-01T05:434521577-15.1-21.829821
2014-05-01T05:434528576-15.0-22.029722
2014-05-01T05:434537575-14.9-22.329622
2014-05-01T05:434548575-14.8-22.429622
2014-05-01T05:434559574-14.7-22.429522
2014-05-01T05:434569573-14.7-22.429422
2014-05-01T05:434582572-14.6-22.429322
2014-05-01T05:434594571-14.6-22.429322
2014-05-01T05:434606570-14.6-22.429222
2014-05-01T05:434616570-14.7-22.429222
2014-05-01T05:444626569-14.8-22.529122
2014-05-01T05:444636568-14.9-22.529122
2014-05-01T05:444646567-14.9-22.529122
2014-05-01T05:444655567-15.0-22.629122
2014-05-01T05:444666566-15.0-22.629122
2014-05-01T05:444679565-15.1-22.629122
2014-05-01T05:444693564-15.0-22.629122
2014-05-01T05:444704563-14.9-22.629122
2014-05-01T05:444711562-15.0-22.729122
2014-05-01T05:444718562-15.0-22.729122
2014-05-01T05:444726561-15.1-22.729222
2014-05-01T05:444734561-15.1-22.829221
2014-05-01T05:444743560-15.2-22.829221
2014-05-01T05:444751559-15.3-22.929321
2014-05-01T05:444759559-15.3-22.929321
2014-05-01T05:444767558-15.4-22.929321
2014-05-01T05:444775558-15.5-22.929421
2014-05-01T05:444783557-15.5-22.929421
2014-05-01T05:444790557-15.4-22.929421
2014-05-01T05:444798556-15.4-22.929420
2014-05-01T05:444806555-15.3-23.129420
2014-05-01T05:444815555-15.3-23.329520
2014-05-01T05:444822554-15.3-23.429520
2014-05-01T05:444829554-15.3-23.429520
2014-05-01T05:444838553-15.4-23.529520
2014-05-01T05:444847552-15.4-23.629520
2014-05-01T05:444858552-15.4-23.829520
2014-05-01T05:444868551-15.5-23.929420
2014-05-01T05:444876550-15.5-23.929420
2014-05-01T05:444883550-15.6-24.029420
2014-05-01T05:454891549-15.6-24.029420
2014-05-01T05:454899549-15.6-24.029420
2014-05-01T05:454907548-15.6-24.029420
2014-05-01T05:454915547-15.6-24.029420
2014-05-01T05:454923547-15.6-24.029420
2014-05-01T05:454931546-15.6-24.229420
2014-05-01T05:454939546-15.7-24.329420
2014-05-01T05:454947545-15.7-24.229420
2014-05-01T05:454955545-15.7-24.429420
2014-05-01T05:454963544-15.8-24.729420
2014-05-01T05:454970543-15.8-25.029420
2014-05-01T05:454979543-15.9-25.229420
2014-05-01T05:454987542-15.9-25.229420
2014-05-01T05:454994542-15.9-25.129420
2014-05-01T05:455002541-15.9-25.129420
2014-05-01T05:455011541-16.0-25.429420
2014-05-01T05:455019540-16.0-25.429420
2014-05-01T05:455028539-16.1-25.029520
2014-05-01T05:455037539-16.1-24.529520
2014-05-01T05:455045538-16.2-24.529519
2014-05-01T05:455053538-16.2-24.629519
2014-05-01T05:455061537-16.3-24.729519
2014-05-01T05:455068536-16.3-24.629519
2014-05-01T05:455077536-16.4-24.529519
2014-05-01T05:455086535-16.4-24.629619
2014-05-01T05:455094535-16.5-24.829619
2014-05-01T05:455102534-16.5-25.129619
2014-05-01T05:455109533-16.5-25.229719
2014-05-01T05:455117533-16.6-25.129719
2014-05-01T05:455126532-16.6-25.029719
2014-05-01T05:465135532-16.6-25.129818
2014-05-01T05:465143531-16.7-25.229818
2014-05-01T05:465151531-16.8-25.229918
2014-05-01T05:465159530-16.8-25.229918
2014-05-01T05:465167529-16.8-25.230018
2014-05-01T05:465177529-16.9-25.230018
2014-05-01T05:465186528-16.9-25.330118
2014-05-01T05:465195527-17.0-25.230118
2014-05-01T05:465204527-17.0-25.130218
2014-05-01T05:465213526-17.1-25.030218
2014-05-01T05:465221526-17.1-25.030317
2014-05-01T05:465230525-17.2-25.030317
2014-05-01T05:465240524-17.3-25.030417
2014-05-01T05:465252523-17.4-25.030417
2014-05-01T05:465265523-17.5-25.130517
2014-05-01T05:465279522-17.6-25.230517
2014-05-01T05:465292521-17.6-25.130617
2014-05-01T05:465303520-17.7-25.130617
2014-05-01T05:465314519-17.7-25.230617
2014-05-01T05:465324518-17.8-25.330717
2014-05-01T05:465333518-17.8-25.530717

Only the first 2000 rows were shown. To view the complete dataset, download it as tab-delimited text. You can still view the full matrix in your browser, but be aware that this may crash the browser due to the huge size.